Time,TemperatureF,DewpointF,PressureIn,WindDirection,WindDirectionDegrees,WindSpeedMPH,WindSpeedGustMPH,Humidity,HourlyPrecipIn,Conditions,Clouds,dailyrainin,SolarRadiationWatts/m^2,SoftwareType,DateUTC
2013-02-03 00:00:00,68.6,62.2,30.11,NNE,12,1.0,6.0,80,0.00,,FEW,0.00,0.00,VWS V14.01,2013-02-03 05:00:00,
2013-02-03 00:01:00,68.6,62.2,30.10,NE,38,3.0,6.0,80,0.00,,FEW,0.00,0.00,VWS V14.01,2013-02-03 05:01:00,
2013-02-03 00:05:00,68.6,62.5,30.10,NNE,28,2.0,6.0,81,0.00,,FEW,0.00,0.00,VWS V14.01,2013-02-03 05:05:00,
2013-02-03 00:06:00,68.7,62.6,30.10,NE,42,4.0,6.0,81,0.00,,FEW,0.00,0.00,VWS V14.01,2013-02-03 05:06:00,
2013-02-03 00:10:00,68.6,62.2,30.10,ENE,57,2.0,6.0,80,0.00,,FEW,0.00,0.00,VWS V14.01,2013-02-03 05:10:00,
2013-02-03 00:11:00,68.6,62.2,30.10,North,9,3.0,6.0,80,0.00,,FEW,0.00,0.00,VWS V14.01,2013-02-03 05:11:00,
2013-02-03 00:15:00,68.5,62.1,30.10,NE,41,2.0,6.0,80,0.00,,FEW,0.00,0.00,VWS V14.01,2013-02-03 05:15:00,
2013-02-03 00:16:00,68.5,62.1,30.09,NNE,28,2.0,6.0,80,0.00,,FEW,0.00,0.00,VWS V14.01,2013-02-03 05:16:00,
2013-02-03 00:20:00,68.5,62.1,30.09,NNE,32,6.0,7.0,80,0.00,,FEW,0.00,0.00,VWS V14.01,2013-02-03 05:20:00,
2013-02-03 00:21:00,68.5,62.1,30.09,NNE,25,3.0,7.0,80,0.00,,FEW,0.00,0.00,VWS V14.01,2013-02-03 05:21:00,
2013-02-03 00:25:00,68.5,62.1,30.09,ENE,59,2.0,6.0,80,0.00,,FEW,0.00,0.00,VWS V14.01,2013-02-03 05:25:00,
2013-02-03 00:26:00,68.4,62.0,30.09,NNE,32,3.0,6.0,80,0.00,,FEW,0.00,0.00,VWS V14.01,2013-02-03 05:26:00,
2013-02-03 00:30:00,68.4,62.0,30.09,ENE,65,3.0,7.0,80,0.00,,FEW,0.00,0.00,VWS V14.01,2013-02-03 05:30:00,
2013-02-03 00:31:00,68.3,61.9,30.09,NE,39,2.0,7.0,80,0.00,,FEW,0.00,0.00,VWS V14.01,2013-02-03 05:31:00,
2013-02-03 00:32:00,68.3,61.9,30.09,NE,43,2.0,3.0,80,0.00,,FEW,0.00,0.00,VWS V14.01,2013-02-03 05:32:00,
2013-02-03 00:35:00,68.3,61.9,30.09,NE,41,4.0,7.0,80,0.00,,FEW,0.00,0.00,VWS V14.01,2013-02-03 05:35:00,
2013-02-03 00:36:00,68.3,61.9,30.09,NE,36,4.0,7.0,80,0.00,,FEW,0.00,0.00,VWS V14.01,2013-02-03 05:36:00,
2013-02-03 00:37:00,68.3,61.9,30.09,NE,40,3.0,7.0,80,0.00,,FEW,0.00,0.00,VWS V14.01,2013-02-03 05:37:00,
2013-02-03 00:40:00,68.3,62.2,30.09,NNE,27,2.0,9.0,81,0.00,,FEW,0.00,0.00,VWS V14.01,2013-02-03 05:40:00,
2013-02-03 00:41:00,68.3,62.2,30.09,NE,45,6.0,9.0,81,0.00,,FEW,0.00,0.00,VWS V14.01,2013-02-03 05:41:00,
2013-02-03 00:42:00,68.3,62.2,30.09,NE,47,4.0,6.0,81,0.00,,FEW,0.00,0.00,VWS V14.01,2013-02-03 05:42:00,
2013-02-03 00:45:00,68.3,62.2,30.08,NE,40,4.0,6.0,81,0.00,,FEW,0.00,0.00,VWS V14.01,2013-02-03 05:45:00,
2013-02-03 00:46:00,68.3,62.2,30.08,NE,50,2.0,6.0,81,0.00,,FEW,0.00,0.00,VWS V14.01,2013-02-03 05:46:00,
2013-02-03 00:47:00,68.3,62.2,30.08,NNE,12,6.0,6.0,81,0.00,,FEW,0.00,0.00,VWS V14.01,2013-02-03 05:47:00,
2013-02-03 00:50:00,68.3,62.2,30.08,NE,43,3.0,7.0,81,0.00,,FEW,0.00,0.00,VWS V14.01,2013-02-03 05:50:00,
2013-02-03 00:51:00,68.3,62.2,30.08,NNE,24,3.0,4.0,81,0.00,,FEW,0.00,0.00,VWS V14.01,2013-02-03 05:51:00,
2013-02-03 00:52:00,68.3,62.2,30.08,NE,56,3.0,4.0,81,0.00,,FEW,0.00,0.00,VWS V14.01,2013-02-03 05:52:00,
2013-02-03 00:56:00,68.2,62.2,30.08,ENE,61,2.0,6.0,81,0.00,,FEW,0.00,0.00,VWS V14.01,2013-02-03 05:56:00,
2013-02-03 00:57:00,68.2,62.2,30.08,NE,55,3.0,6.0,81,0.00,,FEW,0.00,0.00,VWS V14.01,2013-02-03 05:57:00,
2013-02-03 01:01:00,68.1,62.1,30.08,NNE,28,3.0,6.0,81,0.00,,FEW,0.00,0.00,VWS V14.01,2013-02-03 06:01:00,
2013-02-03 01:02:00,68.0,62.0,30.08,NE,37,4.0,5.0,81,0.00,,FEW,0.00,0.00,VWS V14.01,2013-02-03 06:02:00,
2013-02-03 01:06:00,68.0,62.0,30.08,NNE,33,1.0,5.0,81,0.00,,FEW,0.00,0.00,VWS V14.01,2013-02-03 06:06:00,
2013-02-03 01:07:00,68.0,62.0,30.08,NE,40,2.0,5.0,81,0.00,,FEW,0.00,0.00,VWS V14.01,2013-02-03 06:07:00,
2013-02-03 01:11:00,67.9,61.9,30.08,NE,41,3.0,6.0,81,0.00,,FEW,0.00,0.00,VWS V14.01,2013-02-03 06:11:00,
2013-02-03 01:12:00,67.9,61.9,30.08,NE,40,2.0,3.0,81,0.00,,FEW,0.00,0.00,VWS V14.01,2013-02-03 06:12:00,
2013-02-03 01:16:00,67.9,61.9,30.07,NE,39,5.0,7.0,81,0.00,,FEW,0.00,0.00,VWS V14.01,2013-02-03 06:16:00,
2013-02-03 01:17:00,67.9,61.9,30.07,NNE,26,4.0,7.0,81,0.00,,FEW,0.00,0.00,VWS V14.01,2013-02-03 06:17:00,
2013-02-03 01:20:00,67.9,62.2,30.07,NE,42,3.0,8.0,82,0.00,,FEW,0.00,0.00,VWS V14.01,2013-02-03 06:20:00,
2013-02-03 01:21:00,67.9,62.2,30.07,NE,42,3.0,8.0,82,0.00,,FEW,0.00,0.00,VWS V14.01,2013-02-03 06:21:00,
2013-02-03 01:22:00,67.9,62.2,30.07,NNE,22,5.0,6.0,82,0.00,,FEW,0.00,0.00,VWS V14.01,2013-02-03 06:22:00,
2013-02-03 01:23:00,67.9,62.2,30.07,NNE,29,2.0,6.0,82,0.00,,FEW,0.00,0.00,VWS V14.01,2013-02-03 06:23:00,
2013-02-03 01:26:00,67.8,61.8,30.07,NE,36,2.0,6.0,81,0.00,,FEW,0.00,0.00,VWS V14.01,2013-02-03 06:26:00,
2013-02-03 01:27:00,67.8,61.8,30.07,NE,36,1.0,6.0,81,0.00,,FEW,0.00,0.00,VWS V14.01,2013-02-03 06:27:00,
2013-02-03 01:28:00,67.8,61.8,30.07,NNE,20,3.0,6.0,81,0.00,,FEW,0.00,0.00,VWS V14.01,2013-02-03 06:28:00,
2013-02-03 01:30:00,67.7,61.7,30.07,NNE,24,3.0,6.0,81,0.00,,FEW,0.00,0.00,VWS V14.01,2013-02-03 06:30:00,
2013-02-03 01:31:00,67.7,61.7,30.07,NNE,24,2.0,3.0,81,0.00,,FEW,0.00,0.00,VWS V14.01,2013-02-03 06:31:00,
2013-02-03 01:32:00,67.7,61.7,30.07,NNE,26,2.0,3.0,81,0.00,,FEW,0.00,0.00,VWS V14.01,2013-02-03 06:32:00,
2013-02-03 01:33:00,67.7,61.7,30.07,NNE,19,1.0,4.0,81,0.00,,FEW,0.00,0.00,VWS V14.01,2013-02-03 06:33:00,
2013-02-03 01:36:00,67.7,61.7,30.07,NE,42,1.0,5.0,81,0.00,,FEW,0.00,0.00,VWS V14.01,2013-02-03 06:36:00,
2013-02-03 01:37:00,67.6,61.6,30.07,NE,46,1.0,5.0,81,0.00,,FEW,0.00,0.00,VWS V14.01,2013-02-03 06:37:00,
2013-02-03 01:38:00,67.6,61.6,30.07,NNE,15,3.0,5.0,81,0.00,,FEW,0.00,0.00,VWS V14.01,2013-02-03 06:38:00,
2013-02-03 01:40:00,67.6,61.6,30.07,NNE,13,2.0,5.0,81,0.00,,FEW,0.00,0.00,VWS V14.01,2013-02-03 06:40:00,
2013-02-03 01:41:00,67.6,61.6,30.07,NNE,24,3.0,3.0,81,0.00,,FEW,0.00,0.00,VWS V14.01,2013-02-03 06:41:00,
2013-02-03 01:42:00,67.6,61.6,30.07,NNE,24,2.0,3.0,81,0.00,,FEW,0.00,0.00,VWS V14.01,2013-02-03 06:42:00,
2013-02-03 01:43:00,67.6,61.6,30.07,NNE,21,3.0,4.0,81,0.00,,FEW,0.00,0.00,VWS V14.01,2013-02-03 06:43:00,
2013-02-03 01:44:00,67.6,61.6,30.07,NNE,21,2.0,4.0,81,0.00,,FEW,0.00,0.00,VWS V14.01,2013-02-03 06:44:00,
2013-02-03 01:47:00,67.5,61.8,30.07,NNE,20,1.0,4.0,82,0.00,,FEW,0.00,0.00,VWS V14.01,2013-02-03 06:47:00,
2013-02-03 01:49:00,67.5,61.8,30.07,NNE,23,1.0,4.0,82,0.00,,FEW,0.00,0.00,VWS V14.01,2013-02-03 06:49:00,
2013-02-03 01:50:00,67.4,61.7,30.07,NE,56,2.0,4.0,82,0.00,,FEW,0.00,0.00,VWS V14.01,2013-02-03 06:50:00,
2013-02-03 01:52:00,67.4,61.7,30.07,North,5,3.0,4.0,82,0.00,,FEW,0.00,0.00,VWS V14.01,2013-02-03 06:52:00,
2013-02-03 01:53:00,67.4,61.7,30.07,NE,46,3.0,4.0,82,0.00,,FEW,0.00,0.00,VWS V14.01,2013-02-03 06:53:00,
2013-02-03 01:54:00,67.4,61.7,30.07,NNE,32,4.0,4.0,82,0.00,,FEW,0.00,0.00,VWS V14.01,2013-02-03 06:54:00,
2013-02-03 01:57:00,67.3,61.6,30.07,NE,41,3.0,5.0,82,0.00,,FEW,0.00,0.00,VWS V14.01,2013-02-03 06:57:00,
2013-02-03 01:58:00,67.3,61.6,30.07,NNE,13,2.0,5.0,82,0.00,,FEW,0.00,0.00,VWS V14.01,2013-02-03 06:58:00,
2013-02-03 01:59:00,67.3,61.6,30.07,North,5,2.0,5.0,82,0.00,,FEW,0.00,0.00,VWS V14.01,2013-02-03 06:59:00,
2013-02-03 02:00:00,67.3,61.3,30.07,NNE,20,4.0,5.0,81,0.00,,FEW,0.00,0.00,VWS V14.01,2013-02-03 07:00:00,
2013-02-03 02:02:00,67.3,61.3,30.07,NNE,28,2.0,4.0,81,0.00,,FEW,0.00,0.00,VWS V14.01,2013-02-03 07:02:00,
2013-02-03 02:03:00,67.3,61.3,30.07,NNE,24,2.0,4.0,81,0.00,,FEW,0.00,0.00,VWS V14.01,2013-02-03 07:03:00,
2013-02-03 02:04:00,67.3,61.6,30.07,NNE,17,4.0,4.0,82,0.00,,FEW,0.00,0.00,VWS V14.01,2013-02-03 07:04:00,
2013-02-03 02:07:00,67.4,61.7,30.07,NNE,24,3.0,4.0,82,0.00,,FEW,0.00,0.00,VWS V14.01,2013-02-03 07:07:00,
2013-02-03 02:08:00,67.4,61.7,30.07,NNE,25,1.0,4.0,82,0.00,,FEW,0.00,0.00,VWS V14.01,2013-02-03 07:08:00,
2013-02-03 02:09:00,67.4,61.4,30.07,NNE,25,2.0,4.0,81,0.00,,FEW,0.00,0.00,VWS V14.01,2013-02-03 07:09:00,
2013-02-03 02:10:00,67.4,61.4,30.07,NNE,23,3.0,4.0,81,0.00,,FEW,0.00,0.00,VWS V14.01,2013-02-03 07:10:00,
2013-02-03 02:12:00,67.4,61.7,30.07,NNE,17,2.0,3.0,82,0.00,,FEW,0.00,0.00,VWS V14.01,2013-02-03 07:12:00,
2013-02-03 02:13:00,67.4,61.7,30.07,North,11,3.0,3.0,82,0.00,,FEW,0.00,0.00,VWS V14.01,2013-02-03 07:13:00,
2013-02-03 02:14:00,67.3,61.6,30.07,NE,42,2.0,4.0,82,0.00,,FEW,0.00,0.00,VWS V14.01,2013-02-03 07:14:00,
2013-02-03 02:17:00,67.4,61.7,30.06,NNE,31,4.0,5.0,82,0.00,,FEW,0.00,0.00,VWS V14.01,2013-02-03 07:17:00,
2013-02-03 02:18:00,67.4,61.7,30.06,NNE,12,0.0,5.0,82,0.00,,FEW,0.00,0.00,VWS V14.01,2013-02-03 07:18:00,
2013-02-03 02:19:00,67.3,61.6,30.06,NNE,17,3.0,5.0,82,0.00,,FEW,0.00,0.00,VWS V14.01,2013-02-03 07:19:00,
2013-02-03 02:20:00,67.3,61.6,30.06,NNE,15,3.0,5.0,82,0.00,,FEW,0.00,0.00,VWS V14.01,2013-02-03 07:20:00,
2013-02-03 02:22:00,67.3,61.6,30.06,NNE,13,4.0,4.0,82,0.00,,FEW,0.00,0.00,VWS V14.01,2013-02-03 07:22:00,
2013-02-03 02:23:00,67.4,61.7,30.06,NNE,15,2.0,4.0,82,0.00,,FEW,0.00,0.00,VWS V14.01,2013-02-03 07:23:00,
2013-02-03 02:24:00,67.4,61.7,30.06,North,350,1.0,4.0,82,0.00,,FEW,0.00,0.00,VWS V14.01,2013-02-03 07:24:00,
2013-02-03 02:25:00,67.4,61.7,30.06,NNE,17,2.0,4.0,82,0.00,,FEW,0.00,0.00,VWS V14.01,2013-02-03 07:25:00,
2013-02-03 02:27:00,67.4,61.7,30.06,NE,42,2.0,4.0,82,0.00,,FEW,0.00,0.00,VWS V14.01,2013-02-03 07:27:00,
2013-02-03 02:28:00,67.4,61.7,30.06,NNE,32,2.0,4.0,82,0.00,,FEW,0.00,0.00,VWS V14.01,2013-02-03 07:28:00,
2013-02-03 02:29:00,67.4,61.7,30.06,NNE,27,1.0,4.0,82,0.00,,FEW,0.00,0.00,VWS V14.01,2013-02-03 07:29:00,
2013-02-03 02:30:00,67.4,61.7,30.06,NNE,24,3.0,4.0,82,0.00,,FEW,0.00,0.00,VWS V14.01,2013-02-03 07:30:00,
2013-02-03 02:32:00,67.4,61.7,30.06,NNE,30,2.0,3.0,82,0.00,,FEW,0.00,0.00,VWS V14.01,2013-02-03 07:32:00,
2013-02-03 02:33:00,67.4,61.7,30.06,North,5,3.0,3.0,82,0.00,,FEW,0.00,0.00,VWS V14.01,2013-02-03 07:33:00,
2013-02-03 02:34:00,67.4,61.7,30.06,NNE,18,3.0,4.0,82,0.00,,FEW,0.00,0.00,VWS V14.01,2013-02-03 07:34:00,
2013-02-03 02:35:00,67.4,61.7,30.06,NNE,28,3.0,4.0,82,0.00,,FEW,0.00,0.00,VWS V14.01,2013-02-03 07:35:00,
2013-02-03 02:37:00,67.4,61.7,30.06,NNE,22,2.0,4.0,82,0.00,,FEW,0.00,0.00,VWS V14.01,2013-02-03 07:37:00,
2013-02-03 02:38:00,67.4,61.7,30.06,NNE,17,3.0,5.0,82,0.00,,FEW,0.00,0.00,VWS V14.01,2013-02-03 07:38:00,
2013-02-03 02:39:00,67.4,61.7,30.06,NNE,28,5.0,5.0,82,0.00,,FEW,0.00,0.00,VWS V14.01,2013-02-03 07:39:00,
2013-02-03 02:40:00,67.5,61.8,30.06,NE,37,2.0,5.0,82,0.00,,FEW,0.00,0.00,VWS V14.01,2013-02-03 07:40:00,
2013-02-03 02:42:00,67.4,61.7,30.06,North,5,4.0,5.0,82,0.00,,FEW,0.00,0.00,VWS V14.01,2013-02-03 07:42:00,
2013-02-03 02:43:00,67.5,61.8,30.06,North,351,5.0,5.0,82,0.00,,FEW,0.00,0.00,VWS V14.01,2013-02-03 07:43:00,
2013-02-03 02:45:00,67.5,61.8,30.06,NNE,23,2.0,5.0,82,0.00,,FEW,0.00,0.00,VWS V14.01,2013-02-03 07:45:00,
2013-02-03 02:47:00,67.5,61.8,30.05,NNE,20,3.0,7.0,82,0.00,,FEW,0.00,0.00,VWS V14.01,2013-02-03 07:47:00,
2013-02-03 02:48:00,67.5,61.8,30.05,NNE,23,3.0,7.0,82,0.00,,FEW,0.00,0.00,VWS V14.01,2013-02-03 07:48:00,
2013-02-03 02:50:00,67.5,61.8,30.05,NNE,22,4.0,7.0,82,0.00,,FEW,0.00,0.00,VWS V14.01,2013-02-03 07:50:00,
2013-02-03 02:52:00,67.5,61.8,30.05,NNE,21,4.0,5.0,82,0.00,,FEW,0.00,0.00,VWS V14.01,2013-02-03 07:52:00,
2013-02-03 02:54:00,67.6,61.9,30.05,NNE,27,3.0,5.0,82,0.00,,FEW,0.00,0.00,VWS V14.01,2013-02-03 07:54:00,
2013-02-03 02:55:00,67.6,61.9,30.05,NNE,21,2.0,5.0,82,0.00,,FEW,0.00,0.00,VWS V14.01,2013-02-03 07:55:00,
2013-02-03 02:57:00,67.6,61.9,30.05,North,5,3.0,5.0,82,0.00,,FEW,0.00,0.00,VWS V14.01,2013-02-03 07:57:00,
2013-02-03 02:59:00,67.7,62.0,30.05,NNE,31,2.0,6.0,82,0.00,,FEW,0.00,0.00,VWS V14.01,2013-02-03 07:59:00,
2013-02-03 03:00:00,67.7,62.0,30.05,NNE,28,1.0,6.0,82,0.00,,FEW,0.00,0.00,VWS V14.01,2013-02-03 08:00:00,
2013-02-03 03:02:00,67.7,62.0,30.05,NNE,19,3.0,5.0,82,0.00,,FEW,0.00,0.00,VWS V14.01,2013-02-03 08:02:00,
2013-02-03 03:04:00,67.7,61.7,30.05,NNE,15,3.0,7.0,81,0.00,,FEW,0.00,0.00,VWS V14.01,2013-02-03 08:04:00,
2013-02-03 03:05:00,67.7,61.7,30.05,NNE,32,3.0,7.0,81,0.00,,FEW,0.00,0.00,VWS V14.01,2013-02-03 08:05:00,
2013-02-03 03:07:00,67.7,61.7,30.05,North,349,5.0,7.0,81,0.00,,FEW,0.00,0.00,VWS V14.01,2013-02-03 08:07:00,
2013-02-03 03:09:00,67.6,61.6,30.05,NNE,28,3.0,7.0,81,0.00,,FEW,0.00,0.00,VWS V14.01,2013-02-03 08:09:00,
2013-02-03 03:10:00,67.6,61.6,30.05,NNE,31,2.0,7.0,81,0.00,,FEW,0.00,0.00,VWS V14.01,2013-02-03 08:10:00,
2013-02-03 03:11:00,67.6,61.6,30.05,ENE,60,3.0,7.0,81,0.00,,FEW,0.00,0.00,VWS V14.01,2013-02-03 08:11:00,
2013-02-03 03:12:00,67.6,61.6,30.05,NNE,24,3.0,6.0,81,0.00,,FEW,0.00,0.00,VWS V14.01,2013-02-03 08:12:00,
2013-02-03 03:14:00,67.7,61.7,30.05,North,355,4.0,7.0,81,0.00,,FEW,0.00,0.00,VWS V14.01,2013-02-03 08:14:00,
2013-02-03 03:15:00,67.7,61.7,30.05,NNE,19,8.0,8.0,81,0.00,,FEW,0.00,0.00,VWS V14.01,2013-02-03 08:15:00,
2013-02-03 03:16:00,67.7,61.7,30.05,NNE,23,3.0,8.0,81,0.00,,FEW,0.00,0.00,VWS V14.01,2013-02-03 08:16:00,
2013-02-03 03:17:00,67.7,61.7,30.05,North,11,5.0,8.0,81,0.00,,FEW,0.00,0.00,VWS V14.01,2013-02-03 08:17:00,
2013-02-03 03:19:00,67.8,61.8,30.05,North,355,5.0,8.0,81,0.00,,FEW,0.00,0.00,VWS V14.01,2013-02-03 08:19:00,
2013-02-03 03:20:00,67.9,61.9,30.05,North,360,3.0,8.0,81,0.00,,FEW,0.00,0.00,VWS V14.01,2013-02-03 08:20:00,
2013-02-03 03:21:00,67.9,61.9,30.05,North,360,2.0,8.0,81,0.00,,FEW,0.00,0.00,VWS V14.01,2013-02-03 08:21:00,
2013-02-03 03:22:00,67.9,61.9,30.05,NNE,12,5.0,6.0,81,0.00,,FEW,0.00,0.00,VWS V14.01,2013-02-03 08:22:00,
2013-02-03 03:24:00,67.9,61.9,30.05,NNE,15,4.0,6.0,81,0.00,,FEW,0.00,0.00,VWS V14.01,2013-02-03 08:24:00,
2013-02-03 03:26:00,68.0,62.0,30.05,North,360,3.0,6.0,81,0.00,,FEW,0.00,0.00,VWS V14.01,2013-02-03 08:26:00,
2013-02-03 03:28:00,68.0,62.0,30.05,NE,37,3.0,6.0,81,0.00,,FEW,0.00,0.00,VWS V14.01,2013-02-03 08:28:00,
2013-02-03 03:29:00,67.9,61.9,30.05,North,360,5.0,7.0,81,0.00,,FEW,0.00,0.00,VWS V14.01,2013-02-03 08:29:00,
2013-02-03 03:30:00,68.0,62.0,30.05,NNE,19,3.0,7.0,81,0.00,,FEW,0.00,0.00,VWS V14.01,2013-02-03 08:30:00,
2013-02-03 03:31:00,68.0,62.0,30.05,North,5,4.0,7.0,81,0.00,,FEW,0.00,0.00,VWS V14.01,2013-02-03 08:31:00,
2013-02-03 03:33:00,68.0,62.0,30.05,NNW,329,6.0,6.0,81,0.00,,FEW,0.00,0.00,VWS V14.01,2013-02-03 08:33:00,
2013-02-03 03:34:00,67.9,61.9,30.05,NNW,335,5.0,6.0,81,0.00,,FEW,0.00,0.00,VWS V14.01,2013-02-03 08:34:00,
2013-02-03 03:36:00,68.0,62.0,30.05,North,360,5.0,6.0,81,0.00,,FEW,0.00,0.00,VWS V14.01,2013-02-03 08:36:00,
2013-02-03 03:38:00,68.0,62.0,30.05,NNE,16,3.0,7.0,81,0.00,,FEW,0.00,0.00,VWS V14.01,2013-02-03 08:38:00,
2013-02-03 03:39:00,68.0,62.0,30.05,NNE,17,5.0,7.0,81,0.00,,FEW,0.00,0.00,VWS V14.01,2013-02-03 08:39:00,
2013-02-03 03:40:00,68.0,62.0,30.05,NNE,22,5.0,7.0,81,0.00,,FEW,0.00,0.00,VWS V14.01,2013-02-03 08:40:00,
2013-02-03 03:41:00,68.0,62.0,30.05,NE,44,2.0,7.0,81,0.00,,FEW,0.00,0.00,VWS V14.01,2013-02-03 08:41:00,
2013-02-03 03:43:00,68.0,62.0,30.05,North,11,3.0,6.0,81,0.00,,FEW,0.00,0.00,VWS V14.01,2013-02-03 08:43:00,
2013-02-03 03:44:00,68.0,62.0,30.05,North,360,3.0,6.0,81,0.00,,FEW,0.00,0.00,VWS V14.01,2013-02-03 08:44:00,
2013-02-03 03:46:00,68.0,61.6,30.05,NNE,13,5.0,6.0,80,0.00,,FEW,0.00,0.00,VWS V14.01,2013-02-03 08:46:00,
2013-02-03 03:48:00,68.0,62.0,30.05,North,355,6.0,8.0,81,0.00,,FEW,0.00,0.00,VWS V14.01,2013-02-03 08:48:00,
2013-02-03 03:49:00,68.0,61.6,30.05,North,355,6.0,8.0,80,0.00,,FEW,0.00,0.00,VWS V14.01,2013-02-03 08:49:00,
2013-02-03 03:50:00,68.0,61.6,30.05,NNE,22,3.0,8.0,80,0.00,,FEW,0.00,0.00,VWS V14.01,2013-02-03 08:50:00,
2013-02-03 03:51:00,68.0,61.6,30.05,NE,36,4.0,8.0,80,0.00,,FEW,0.00,0.00,VWS V14.01,2013-02-03 08:51:00,
2013-02-03 03:52:00,68.0,61.6,30.05,North,5,8.0,8.0,80,0.00,,FEW,0.00,0.00,VWS V14.01,2013-02-03 08:52:00,
2013-02-03 03:53:00,68.0,61.6,30.05,North,355,3.0,8.0,80,0.00,,FEW,0.00,0.00,VWS V14.01,2013-02-03 08:53:00,
2013-02-03 03:54:00,67.9,61.5,30.05,North,360,4.0,8.0,80,0.00,,FEW,0.00,0.00,VWS V14.01,2013-02-03 08:54:00,
2013-02-03 03:56:00,67.9,61.5,30.05,NNE,18,4.0,8.0,80,0.00,,FEW,0.00,0.00,VWS V14.01,2013-02-03 08:56:00,
2013-02-03 03:57:00,68.0,61.6,30.05,NNE,21,4.0,8.0,80,0.00,,FEW,0.00,0.00,VWS V14.01,2013-02-03 08:57:00,
2013-02-03 03:58:00,68.0,62.0,30.05,North,11,6.0,8.0,81,0.00,,FEW,0.00,0.00,VWS V14.01,2013-02-03 08:58:00,
2013-02-03 04:00:00,68.0,62.0,30.05,NNW,340,5.0,8.0,81,0.00,,FEW,0.00,0.00,VWS V14.01,2013-02-03 09:00:00,
2013-02-03 04:01:00,68.0,62.0,30.05,North,355,4.0,4.0,81,0.00,,FEW,0.00,0.00,VWS V14.01,2013-02-03 09:01:00,
2013-02-03 04:02:00,68.1,62.1,30.05,North,5,6.0,6.0,81,0.00,,FEW,0.00,0.00,VWS V14.01,2013-02-03 09:02:00,
2013-02-03 04:03:00,68.1,62.1,30.05,NNE,24,4.0,6.0,81,0.00,,FEW,0.00,0.00,VWS V14.01,2013-02-03 09:03:00,
2013-02-03 04:05:00,68.1,62.1,30.05,NNW,340,4.0,7.0,81,0.00,,FEW,0.00,0.00,VWS V14.01,2013-02-03 09:05:00,
2013-02-03 04:06:00,68.1,62.1,30.05,North,5,4.0,7.0,81,0.00,,FEW,0.00,0.00,VWS V14.01,2013-02-03 09:06:00,
2013-02-03 04:07:00,68.0,62.0,30.05,North,5,3.0,7.0,81,0.00,,FEW,0.00,0.00,VWS V14.01,2013-02-03 09:07:00,
2013-02-03 04:08:00,68.0,62.0,30.05,NNE,13,3.0,7.0,81,0.00,,FEW,0.00,0.00,VWS V14.01,2013-02-03 09:08:00,
2013-02-03 04:10:00,68.0,62.0,30.05,NNE,13,4.0,8.0,81,0.00,,FEW,0.00,0.00,VWS V14.01,2013-02-03 09:10:00,
2013-02-03 04:12:00,68.0,62.0,30.05,North,360,4.0,5.0,81,0.00,,FEW,0.00,0.00,VWS V14.01,2013-02-03 09:12:00,
2013-02-03 04:13:00,68.0,62.0,30.05,NNE,24,5.0,7.0,81,0.00,,FEW,0.00,0.00,VWS V14.01,2013-02-03 09:13:00,
2013-02-03 04:15:00,67.9,61.5,30.05,North,355,4.0,7.0,80,0.00,,FEW,0.00,0.00,VWS V14.01,2013-02-03 09:15:00,
2013-02-03 04:17:00,67.9,61.5,30.06,NNE,18,5.0,7.0,80,0.00,,FEW,0.00,0.00,VWS V14.01,2013-02-03 09:17:00,
2013-02-03 04:18:00,67.9,61.5,30.06,NNE,24,5.0,7.0,80,0.00,,FEW,0.00,0.00,VWS V14.01,2013-02-03 09:18:00,
2013-02-03 04:20:00,67.9,61.5,30.06,North,360,5.0,7.0,80,0.00,,FEW,0.00,0.00,VWS V14.01,2013-02-03 09:20:00,
2013-02-03 04:22:00,67.9,61.5,30.06,NNW,344,4.0,6.0,80,0.00,,FEW,0.00,0.00,VWS V14.01,2013-02-03 09:22:00,
2013-02-03 04:23:00,68.0,61.6,30.06,NNE,12,4.0,6.0,80,0.00,,FEW,0.00,0.00,VWS V14.01,2013-02-03 09:23:00,
2013-02-03 04:25:00,68.0,61.6,30.06,NE,43,1.0,6.0,80,0.00,,FEW,0.00,0.00,VWS V14.01,2013-02-03 09:25:00,
2013-02-03 04:27:00,68.0,62.0,30.06,NW,319,4.0,7.0,81,0.00,,FEW,0.00,0.00,VWS V14.01,2013-02-03 09:27:00,
2013-02-03 04:28:00,68.1,62.1,30.06,North,5,3.0,7.0,81,0.00,,FEW,0.00,0.00,VWS V14.01,2013-02-03 09:28:00,
2013-02-03 04:30:00,68.1,62.1,30.06,NNW,348,5.0,7.0,81,0.00,,FEW,0.00,0.00,VWS V14.01,2013-02-03 09:30:00,
2013-02-03 04:32:00,68.1,62.1,30.06,NNE,30,2.0,4.0,81,0.00,,FEW,0.00,0.00,VWS V14.01,2013-02-03 09:32:00,
2013-02-03 04:33:00,68.1,62.1,30.06,North,350,4.0,4.0,81,0.00,,FEW,0.00,0.00,VWS V14.01,2013-02-03 09:33:00,
2013-02-03 04:34:00,68.1,62.1,30.06,North,350,4.0,6.0,81,0.00,,FEW,0.00,0.00,VWS V14.01,2013-02-03 09:34:00,
2013-02-03 04:35:00,68.1,62.1,30.06,North,355,4.0,6.0,81,0.00,,FEW,0.00,0.00,VWS V14.01,2013-02-03 09:35:00,
2013-02-03 04:37:00,68.1,62.1,30.06,NE,34,4.0,6.0,81,0.00,,FEW,0.00,0.00,VWS V14.01,2013-02-03 09:37:00,
2013-02-03 04:38:00,68.0,62.0,30.06,NNE,19,3.0,6.0,81,0.00,,FEW,0.00,0.00,VWS V14.01,2013-02-03 09:38:00,
2013-02-03 04:39:00,68.0,62.0,30.06,North,11,2.0,6.0,81,0.00,,FEW,0.00,0.00,VWS V14.01,2013-02-03 09:39:00,
2013-02-03 04:40:00,68.0,62.0,30.06,NNE,21,5.0,6.0,81,0.00,,FEW,0.00,0.00,VWS V14.01,2013-02-03 09:40:00,
2013-02-03 04:42:00,68.0,62.0,30.06,North,5,6.0,11.0,81,0.00,,FEW,0.00,0.00,VWS V14.01,2013-02-03 09:42:00,
2013-02-03 04:43:00,68.0,62.0,30.06,North,11,8.0,11.0,81,0.00,,FEW,0.00,0.00,VWS V14.01,2013-02-03 09:43:00,
2013-02-03 04:44:00,68.0,62.0,30.06,North,355,5.0,11.0,81,0.00,,FEW,0.00,0.00,VWS V14.01,2013-02-03 09:44:00,
2013-02-03 04:45:00,68.0,62.0,30.06,NNE,13,6.0,11.0,81,0.00,,FEW,0.00,0.00,VWS V14.01,2013-02-03 09:45:00,
2013-02-03 04:47:00,67.9,61.9,30.05,NNE,19,4.0,11.0,81,0.00,,FEW,0.00,0.00,VWS V14.01,2013-02-03 09:47:00,
2013-02-03 04:48:00,67.9,61.9,30.05,NNW,343,6.0,11.0,81,0.00,,FEW,0.00,0.00,VWS V14.01,2013-02-03 09:48:00,
2013-02-03 04:49:00,67.9,61.9,30.05,NNE,22,8.0,11.0,81,0.00,,FEW,0.00,0.00,VWS V14.01,2013-02-03 09:49:00,
2013-02-03 04:50:00,67.8,61.8,30.05,NNW,345,9.0,11.0,81,0.00,,FEW,0.00,0.00,VWS V14.01,2013-02-03 09:50:00,
2013-02-03 04:52:00,67.8,61.8,30.05,North,5,3.0,9.0,81,0.00,,FEW,0.00,0.00,VWS V14.01,2013-02-03 09:52:00,
2013-02-03 04:53:00,67.8,61.8,30.05,NNE,17,8.0,9.0,81,0.00,,FEW,0.00,0.00,VWS V14.01,2013-02-03 09:53:00,
2013-02-03 04:54:00,67.8,61.8,30.05,North,355,7.0,9.0,81,0.00,,FEW,0.00,0.00,VWS V14.01,2013-02-03 09:54:00,
2013-02-03 04:55:00,67.8,61.8,30.05,ENE,58,4.0,9.0,81,0.00,,FEW,0.00,0.00,VWS V14.01,2013-02-03 09:55:00,
2013-02-03 04:57:00,67.7,61.7,30.05,NE,34,8.0,9.0,81,0.00,,FEW,0.00,0.00,VWS V14.01,2013-02-03 09:57:00,
2013-02-03 04:58:00,67.7,61.7,30.05,North,349,5.0,9.0,81,0.00,,FEW,0.00,0.00,VWS V14.01,2013-02-03 09:58:00,
2013-02-03 04:59:00,67.7,61.7,30.05,NNE,22,4.0,9.0,81,0.00,,FEW,0.00,0.00,VWS V14.01,2013-02-03 09:59:00,
2013-02-03 05:00:00,67.6,61.6,30.05,NNE,14,6.0,9.0,81,0.00,,FEW,0.00,0.00,VWS V14.01,2013-02-03 10:00:00,
2013-02-03 05:01:00,67.6,61.6,30.05,North,5,9.0,9.0,81,0.00,,FEW,0.00,0.00,VWS V14.01,2013-02-03 10:01:00,
2013-02-03 05:02:00,67.6,61.6,30.05,North,360,5.0,8.0,81,0.00,,FEW,0.00,0.00,VWS V14.01,2013-02-03 10:02:00,
2013-02-03 05:03:00,67.6,61.6,30.05,North,360,8.0,9.0,81,0.00,,FEW,0.00,0.00,VWS V14.01,2013-02-03 10:03:00,
2013-02-03 05:04:00,67.6,61.6,30.05,North,5,6.0,9.0,81,0.00,,FEW,0.00,0.00,VWS V14.01,2013-02-03 10:04:00,
2013-02-03 05:06:00,67.6,61.6,30.05,NNW,347,5.0,9.0,81,0.00,,FEW,0.00,0.00,VWS V14.01,2013-02-03 10:06:00,
2013-02-03 05:07:00,67.5,61.8,30.05,NE,36,5.0,11.0,82,0.00,,FEW,0.00,0.00,VWS V14.01,2013-02-03 10:07:00,
2013-02-03 05:08:00,67.5,61.8,30.05,NE,38,4.0,11.0,82,0.00,,FEW,0.00,0.00,VWS V14.01,2013-02-03 10:08:00,
2013-02-03 05:09:00,67.5,61.5,30.05,North,5,6.0,11.0,81,0.00,,FEW,0.00,0.00,VWS V14.01,2013-02-03 10:09:00,
2013-02-03 05:10:00,67.4,61.4,30.05,NNE,32,3.0,11.0,81,0.00,,FEW,0.00,0.00,VWS V14.01,2013-02-03 10:10:00,
2013-02-03 05:11:00,67.4,61.4,30.05,NNE,32,3.0,11.0,81,0.00,,FEW,0.00,0.00,VWS V14.01,2013-02-03 10:11:00,
2013-02-03 05:12:00,67.4,61.4,30.05,NW,319,10.0,10.0,81,0.00,,FEW,0.00,0.00,VWS V14.01,2013-02-03 10:12:00,
2013-02-03 05:13:00,67.3,61.6,30.05,NNE,13,5.0,10.0,82,0.00,,FEW,0.00,0.00,VWS V14.01,2013-02-03 10:13:00,
2013-02-03 05:14:00,67.4,61.4,30.05,NE,39,5.0,10.0,81,0.00,,FEW,0.00,0.00,VWS V14.01,2013-02-03 10:14:00,
2013-02-03 05:16:00,67.3,61.3,30.06,North,5,6.0,10.0,81,0.00,,FEW,0.00,0.00,VWS V14.01,2013-02-03 10:16:00,
2013-02-03 05:17:00,67.3,61.3,30.06,NNE,12,6.0,10.0,81,0.00,,FEW,0.00,0.00,VWS V14.01,2013-02-03 10:17:00,
2013-02-03 05:18:00,67.3,61.3,30.06,NNE,22,3.0,10.0,81,0.00,,FEW,0.00,0.00,VWS V14.01,2013-02-03 10:18:00,
2013-02-03 05:20:00,67.3,61.3,30.06,North,349,8.0,12.0,81,0.00,,FEW,0.00,0.00,VWS V14.01,2013-02-03 10:20:00,
2013-02-03 05:21:00,67.3,61.3,30.06,North,355,6.0,12.0,81,0.00,,FEW,0.00,0.00,VWS V14.01,2013-02-03 10:21:00,
2013-02-03 05:22:00,67.2,61.2,30.06,NNE,17,5.0,9.0,81,0.00,,FEW,0.00,0.00,VWS V14.01,2013-02-03 10:22:00,
2013-02-03 05:24:00,67.2,61.5,30.06,NNW,345,8.0,10.0,82,0.00,,FEW,0.00,0.00,VWS V14.01,2013-02-03 10:24:00,
2013-02-03 05:25:00,67.3,61.6,30.06,NNW,333,8.0,10.0,82,0.00,,FEW,0.00,0.00,VWS V14.01,2013-02-03 10:25:00,
2013-02-03 05:26:00,67.3,61.6,30.06,North,350,6.0,10.0,82,0.00,,FEW,0.00,0.00,VWS V14.01,2013-02-03 10:26:00,
2013-02-03 05:27:00,67.3,61.6,30.06,NNW,331,9.0,10.0,82,0.00,,FEW,0.00,0.00,VWS V14.01,2013-02-03 10:27:00,
2013-02-03 05:29:00,67.2,61.5,30.06,NNE,18,7.0,10.0,82,0.00,,FEW,0.00,0.00,VWS V14.01,2013-02-03 10:29:00,
2013-02-03 05:30:00,67.2,61.2,30.06,North,349,5.0,10.0,81,0.00,,FEW,0.00,0.00,VWS V14.01,2013-02-03 10:30:00,
2013-02-03 05:31:00,67.2,61.5,30.06,North,350,8.0,8.0,82,0.00,,FEW,0.00,0.00,VWS V14.01,2013-02-03 10:31:00,
2013-02-03 05:32:00,67.2,61.5,30.06,North,351,6.0,8.0,82,0.00,,FEW,0.00,0.00,VWS V14.01,2013-02-03 10:32:00,
2013-02-03 05:35:00,67.2,61.5,30.06,NNE,24,4.0,8.0,82,0.00,,FEW,0.00,0.00,VWS V14.01,2013-02-03 10:35:00,
2013-02-03 05:36:00,67.2,61.5,30.06,NNE,17,5.0,11.0,82,0.00,,FEW,0.00,0.00,VWS V14.01,2013-02-03 10:36:00,
2013-02-03 05:38:00,67.2,61.5,30.06,North,5,4.0,11.0,82,0.00,,FEW,0.00,0.00,VWS V14.01,2013-02-03 10:38:00,
2013-02-03 05:40:00,67.1,61.1,30.06,NNW,344,4.0,11.0,81,0.00,,FEW,0.00,0.00,VWS V14.01,2013-02-03 10:40:00,
2013-02-03 05:42:00,67.1,61.1,30.06,NNW,343,10.0,10.0,81,0.00,,FEW,0.00,0.00,VWS V14.01,2013-02-03 10:42:00,
2013-02-03 05:43:00,67.1,61.4,30.06,NNW,346,6.0,10.0,82,0.00,,FEW,0.00,0.00,VWS V14.01,2013-02-03 10:43:00,
2013-02-03 05:45:00,67.2,61.5,30.06,NNW,344,2.0,10.0,82,0.00,,FEW,0.00,0.00,VWS V14.01,2013-02-03 10:45:00,
2013-02-03 05:47:00,67.2,61.5,30.07,NW,324,6.0,10.0,82,0.00,,FEW,0.00,0.00,VWS V14.01,2013-02-03 10:47:00,
2013-02-03 05:48:00,67.2,61.5,30.07,NNE,28,3.0,10.0,82,0.00,,FEW,0.00,0.00,VWS V14.01,2013-02-03 10:48:00,
2013-02-03 05:50:00,67.2,61.5,30.07,North,349,6.0,10.0,82,0.00,,FEW,0.00,0.00,VWS V14.01,2013-02-03 10:50:00,
2013-02-03 05:52:00,67.2,61.2,30.07,NNE,26,4.0,11.0,81,0.00,,FEW,0.00,0.00,VWS V14.01,2013-02-03 10:52:00,
2013-02-03 05:53:00,67.2,61.2,30.07,NE,40,6.0,11.0,81,0.00,,FEW,0.00,0.00,VWS V14.01,2013-02-03 10:53:00,
2013-02-03 05:55:00,67.2,61.2,30.07,North,355,8.0,11.0,81,0.00,,FEW,0.00,0.00,VWS V14.01,2013-02-03 10:55:00,
2013-02-03 05:56:00,67.2,61.2,30.07,NNW,336,7.0,11.0,81,0.00,,FEW,0.00,0.00,VWS V14.01,2013-02-03 10:56:00,
2013-02-03 05:57:00,67.2,61.2,30.07,NNE,20,5.0,11.0,81,0.00,,FEW,0.00,0.00,VWS V14.01,2013-02-03 10:57:00,
2013-02-03 05:58:00,67.1,61.1,30.07,NNW,342,9.0,11.0,81,0.00,,FEW,0.00,0.00,VWS V14.01,2013-02-03 10:58:00,
2013-02-03 06:00:00,67.1,61.1,30.08,NNW,342,4.0,11.0,81,0.00,,FEW,0.00,0.00,VWS V14.01,2013-02-03 11:00:00,
2013-02-03 06:01:00,67.1,61.1,30.08,North,355,6.0,11.0,81,0.00,,FEW,0.00,0.00,VWS V14.01,2013-02-03 11:01:00,
2013-02-03 06:02:00,67.2,61.2,30.08,North,5,4.0,10.0,81,0.00,,FEW,0.00,0.00,VWS V14.01,2013-02-03 11:02:00,
2013-02-03 06:03:00,67.2,61.2,30.08,NNW,338,10.0,10.0,81,0.00,,FEW,0.00,0.00,VWS V14.01,2013-02-03 11:03:00,
2013-02-03 06:06:00,67.2,61.2,30.08,NW,323,7.0,10.0,81,0.00,,FEW,0.00,0.00,VWS V14.01,2013-02-03 11:06:00,
2013-02-03 06:07:00,67.2,61.2,30.08,NNE,25,6.0,11.0,81,0.00,,FEW,0.00,0.00,VWS V14.01,2013-02-03 11:07:00,
2013-02-03 06:08:00,67.3,61.3,30.08,North,355,6.0,11.0,81,0.00,,FEW,0.00,0.00,VWS V14.01,2013-02-03 11:08:00,
2013-02-03 06:10:00,67.3,61.3,30.08,NNW,342,9.0,11.0,81,0.00,,FEW,0.00,0.00,VWS V14.01,2013-02-03 11:10:00,
2013-02-03 06:11:00,67.3,61.3,30.08,NNW,344,7.0,11.0,81,0.00,,FEW,0.00,0.00,VWS V14.01,2013-02-03 11:11:00,
2013-02-03 06:12:00,67.3,61.3,30.08,NNE,13,9.0,9.0,81,0.00,,FEW,0.00,0.00,VWS V14.01,2013-02-03 11:12:00,
2013-02-03 06:13:00,67.3,61.3,30.08,North,5,6.0,9.0,81,0.00,,FEW,0.00,0.00,VWS V14.01,2013-02-03 11:13:00,
2013-02-03 06:16:00,67.3,61.3,30.08,North,355,4.0,9.0,81,0.00,,FEW,0.00,0.00,VWS V14.01,2013-02-03 11:16:00,
2013-02-03 06:17:00,67.3,61.6,30.08,North,5,6.0,9.0,82,0.00,,FEW,0.00,0.00,VWS V14.01,2013-02-03 11:17:00,
2013-02-03 06:18:00,67.3,61.6,30.08,NW,322,9.0,9.0,82,0.00,,FEW,0.00,0.00,VWS V14.01,2013-02-03 11:18:00,
2013-02-03 06:20:00,67.3,61.6,30.08,NNW,327,7.0,12.0,82,0.00,,FEW,0.00,0.00,VWS V14.01,2013-02-03 11:20:00,
2013-02-03 06:21:00,67.3,61.6,30.08,NNW,331,9.0,12.0,82,0.00,,FEW,0.00,0.00,VWS V14.01,2013-02-03 11:21:00,
2013-02-03 06:22:00,67.3,61.6,30.08,North,360,8.0,9.0,82,0.00,,FEW,0.00,0.00,VWS V14.01,2013-02-03 11:22:00,
2013-02-03 06:23:00,67.3,61.6,30.08,NNW,342,5.0,9.0,82,0.00,,FEW,0.00,0.00,VWS V14.01,2013-02-03 11:23:00,
2013-02-03 06:26:00,67.3,61.6,30.08,North,360,8.0,9.0,82,0.00,,FEW,0.00,0.00,VWS V14.01,2013-02-03 11:26:00,
2013-02-03 06:28:00,67.4,62.1,30.08,North,5,7.0,10.0,83,0.00,,FEW,0.00,0.00,VWS V14.01,2013-02-03 11:28:00,
2013-02-03 06:30:00,67.4,62.1,30.09,North,5,7.0,11.0,83,0.00,,FEW,0.00,0.00,VWS V14.01,2013-02-03 11:30:00,
2013-02-03 06:31:00,67.4,62.1,30.09,NNE,15,7.0,11.0,83,0.00,,FEW,0.00,0.00,VWS V14.01,2013-02-03 11:31:00,
2013-02-03 06:33:00,67.4,62.1,30.09,NNW,335,5.0,9.0,83,0.00,,FEW,0.00,0.00,VWS V14.01,2013-02-03 11:33:00,
2013-02-03 06:34:00,67.4,62.1,30.09,NNE,15,6.0,12.0,83,0.00,,FEW,0.00,0.00,VWS V14.01,2013-02-03 11:34:00,
2013-02-03 06:36:00,67.4,62.1,30.09,NNW,338,5.0,12.0,83,0.00,,FEW,0.00,0.00,VWS V14.01,2013-02-03 11:36:00,
2013-02-03 06:38:00,67.4,62.1,30.09,NNW,340,6.0,12.0,83,0.00,,FEW,0.00,0.00,VWS V14.01,2013-02-03 11:38:00,
2013-02-03 06:39:00,67.4,62.1,30.09,NNW,347,7.0,13.0,83,0.00,,FEW,0.00,0.00,VWS V14.01,2013-02-03 11:39:00,
2013-02-03 06:40:00,67.4,62.1,30.09,NNW,336,8.0,13.0,83,0.00,,FEW,0.00,0.00,VWS V14.01,2013-02-03 11:40:00,
2013-02-03 06:41:00,67.4,62.1,30.09,NNW,346,7.0,8.0,83,0.00,,FEW,0.00,0.00,VWS V14.01,2013-02-03 11:41:00,
2013-02-03 06:43:00,67.4,62.1,30.09,North,360,6.0,11.0,83,0.00,,FEW,0.00,0.00,VWS V14.01,2013-02-03 11:43:00,
2013-02-03 06:44:00,67.4,62.1,30.09,NNW,336,8.0,11.0,83,0.00,,FEW,0.00,0.00,VWS V14.01,2013-02-03 11:44:00,
2013-02-03 06:46:00,67.3,61.6,30.09,NNW,339,8.0,14.0,82,0.00,,FEW,0.00,0.00,VWS V14.01,2013-02-03 11:46:00,
2013-02-03 06:48:00,67.3,61.6,30.09,North,5,12.0,14.0,82,0.00,,FEW,0.00,0.00,VWS V14.01,2013-02-03 11:48:00,
2013-02-03 06:50:00,67.4,61.7,30.09,NNW,329,5.0,14.0,82,0.00,,FEW,0.00,0.00,VWS V14.01,2013-02-03 11:50:00,
2013-02-03 06:51:00,67.4,61.7,30.09,NNW,332,10.0,10.0,82,0.00,,FEW,0.00,0.00,VWS V14.01,2013-02-03 11:51:00,
2013-02-03 06:53:00,67.5,61.8,30.09,North,355,11.0,14.0,82,0.00,,FEW,0.00,0.00,VWS V14.01,2013-02-03 11:53:00,
2013-02-03 06:55:00,67.5,61.8,30.09,North,5,6.0,14.0,82,0.00,,FEW,0.00,0.00,VWS V14.01,2013-02-03 11:55:00,
2013-02-03 06:56:00,67.5,61.8,30.09,North,350,10.0,14.0,82,0.00,,FEW,0.00,0.00,VWS V14.01,2013-02-03 11:56:00,
2013-02-03 06:58:00,67.6,62.3,30.09,NNW,338,7.0,14.0,83,0.00,,FEW,0.00,0.00,VWS V14.01,2013-02-03 11:58:00,
2013-02-03 07:00:00,67.7,62.4,30.09,NNW,346,8.0,14.0,83,0.00,,FEW,0.00,0.00,VWS V14.01,2013-02-03 12:00:00,
2013-02-03 07:01:00,67.6,62.3,30.10,North,350,8.0,8.0,83,0.00,,FEW,0.00,0.00,VWS V14.01,2013-02-03 12:01:00,
2013-02-03 07:03:00,67.6,62.3,30.10,NNE,13,7.0,12.0,83,0.00,,FEW,0.00,0.00,VWS V14.01,2013-02-03 12:03:00,
2013-02-03 07:05:00,67.6,62.3,30.10,North,350,6.0,12.0,83,0.00,,FEW,0.00,0.00,VWS V14.01,2013-02-03 12:05:00,
2013-02-03 07:07:00,67.4,62.1,30.10,NNW,344,8.0,15.0,83,0.00,,FEW,0.00,0.00,VWS V14.01,2013-02-03 12:07:00,
2013-02-03 07:08:00,67.4,62.1,30.10,North,360,14.0,16.0,83,0.00,,FEW,0.00,0.00,VWS V14.01,2013-02-03 12:08:00,
2013-02-03 07:10:00,67.3,62.0,30.10,NW,317,10.0,16.0,83,0.00,,FEW,0.00,5.00,VWS V14.01,2013-02-03 12:10:00,
2013-02-03 07:12:00,67.2,61.5,30.10,NNW,344,7.0,12.0,82,0.00,,FEW,0.00,5.00,VWS V14.01,2013-02-03 12:12:00,
2013-02-03 07:13:00,67.2,61.5,30.10,NNW,331,8.0,16.0,82,0.00,,FEW,0.00,7.00,VWS V14.01,2013-02-03 12:13:00,
2013-02-03 07:15:00,67.2,61.9,30.10,NNW,345,5.0,16.0,83,0.00,,FEW,0.00,9.00,VWS V14.01,2013-02-03 12:15:00,
2013-02-03 07:17:00,67.3,62.0,30.10,NNW,338,12.0,16.0,83,0.00,,FEW,0.00,11.00,VWS V14.01,2013-02-03 12:17:00,
2013-02-03 07:19:00,67.2,61.9,30.10,North,355,6.0,16.0,83,0.00,,FEW,0.00,12.00,VWS V14.01,2013-02-03 12:19:00,
2013-02-03 07:20:00,67.2,61.9,30.10,NNE,18,7.0,16.0,83,0.00,,FEW,0.00,12.00,VWS V14.01,2013-02-03 12:20:00,
2013-02-03 07:22:00,67.2,61.9,30.10,North,360,10.0,10.0,83,0.00,,FEW,0.00,16.00,VWS V14.01,2013-02-03 12:22:00,
2013-02-03 07:24:00,67.2,61.9,30.10,NNW,338,7.0,13.0,83,0.00,,FEW,0.00,19.00,VWS V14.01,2013-02-03 12:24:00,
2013-02-03 07:25:00,67.2,61.9,30.10,North,5,6.0,13.0,83,0.00,,FEW,0.00,21.00,VWS V14.01,2013-02-03 12:25:00,
2013-02-03 07:27:00,67.2,62.2,30.10,NNW,347,5.0,13.0,84,0.00,,FEW,0.00,21.00,VWS V14.01,2013-02-03 12:27:00,
2013-02-03 07:29:00,67.2,62.2,30.10,NNE,12,8.0,13.0,84,0.00,,FEW,0.00,25.00,VWS V14.01,2013-02-03 12:29:00,
2013-02-03 07:30:00,67.1,61.8,30.11,NNE,27,12.0,13.0,83,0.00,,FEW,0.00,28.00,VWS V14.01,2013-02-03 12:30:00,
2013-02-03 07:31:00,67.1,61.8,30.11,North,355,9.0,13.0,83,0.00,,FEW,0.00,28.00,VWS V14.01,2013-02-03 12:31:00,
2013-02-03 07:32:00,67.0,61.7,30.11,North,355,13.0,13.0,83,0.00,,FEW,0.00,28.00,VWS V14.01,2013-02-03 12:32:00,
2013-02-03 07:34:00,67.0,61.7,30.11,North,5,10.0,14.0,83,0.00,,FEW,0.00,30.00,VWS V14.01,2013-02-03 12:34:00,
2013-02-03 07:36:00,66.9,61.6,30.11,NNW,327,12.0,14.0,83,0.00,,FEW,0.00,30.00,VWS V14.01,2013-02-03 12:36:00,
2013-02-03 07:37:00,67.0,61.7,30.11,NNE,21,5.0,14.0,83,0.00,,FEW,0.00,32.00,VWS V14.01,2013-02-03 12:37:00,
2013-02-03 07:39:00,67.0,62.0,30.11,North,355,5.0,14.0,84,0.00,,FEW,0.00,32.00,VWS V14.01,2013-02-03 12:39:00,
2013-02-03 07:40:00,67.0,62.0,30.11,NNW,347,6.0,14.0,84,0.00,,FEW,0.00,33.00,VWS V14.01,2013-02-03 12:40:00,
2013-02-03 07:41:00,67.0,62.0,30.11,North,5,12.0,14.0,84,0.00,,FEW,0.00,33.00,VWS V14.01,2013-02-03 12:41:00,
2013-02-03 07:42:00,66.9,61.6,30.11,North,5,10.0,10.0,83,0.00,,FEW,0.00,33.00,VWS V14.01,2013-02-03 12:42:00,
2013-02-03 07:44:00,66.7,61.4,30.11,NNW,333,6.0,11.0,83,0.00,,FEW,0.00,39.00,VWS V14.01,2013-02-03 12:44:00,
2013-02-03 07:46:00,66.7,61.4,30.11,NNE,22,5.0,11.0,83,0.00,,FEW,0.00,46.00,VWS V14.01,2013-02-03 12:46:00,
2013-02-03 07:47:00,66.7,61.4,30.11,NNE,25,8.0,11.0,83,0.00,,FEW,0.00,47.00,VWS V14.01,2013-02-03 12:47:00,
2013-02-03 07:49:00,66.7,61.4,30.11,NNE,22,5.0,11.0,83,0.00,,FEW,0.00,47.00,VWS V14.01,2013-02-03 12:49:00,
2013-02-03 07:50:00,66.6,61.3,30.11,NNW,339,10.0,11.0,83,0.00,,FEW,0.00,49.00,VWS V14.01,2013-02-03 12:50:00,
2013-02-03 07:51:00,66.6,61.3,30.11,North,360,6.0,10.0,83,0.00,,FEW,0.00,49.00,VWS V14.01,2013-02-03 12:51:00,
2013-02-03 07:52:00,66.5,61.2,30.11,North,10,7.0,11.0,83,0.00,,FEW,0.00,49.00,VWS V14.01,2013-02-03 12:52:00,
2013-02-03 07:53:00,66.5,60.8,30.11,North,355,10.0,11.0,82,0.00,,FEW,0.00,49.00,VWS V14.01,2013-02-03 12:53:00,
2013-02-03 07:54:00,66.4,60.7,30.11,NNW,336,10.0,14.0,82,0.00,,FEW,0.00,47.00,VWS V14.01,2013-02-03 12:54:00,
2013-02-03 07:57:00,66.4,60.7,30.11,NNW,341,7.0,14.0,82,0.00,,FEW,0.00,49.00,VWS V14.01,2013-02-03 12:57:00,
2013-02-03 07:58:00,66.4,60.7,30.11,NNW,331,9.0,14.0,82,0.00,,FEW,0.00,49.00,VWS V14.01,2013-02-03 12:58:00,
2013-02-03 08:00:00,66.4,60.7,30.11,NNW,347,14.0,14.0,82,0.00,,FEW,0.00,47.00,VWS V14.01,2013-02-03 13:00:00,
2013-02-03 08:02:00,66.4,60.7,30.12,NNE,13,6.0,7.0,82,0.00,,FEW,0.00,46.00,VWS V14.01,2013-02-03 13:02:00,
2013-02-03 08:03:00,66.4,60.7,30.12,NNE,33,9.0,12.0,82,0.00,,FEW,0.00,46.00,VWS V14.01,2013-02-03 13:03:00,
2013-02-03 08:05:00,66.3,60.7,30.12,North,355,6.0,13.0,82,0.00,,FEW,0.00,46.00,VWS V14.01,2013-02-03 13:05:00,
2013-02-03 08:07:00,66.4,60.7,30.12,NNW,342,12.0,13.0,82,0.00,,FEW,0.00,77.00,VWS V14.01,2013-02-03 13:07:00,
2013-02-03 08:08:00,66.4,60.7,30.12,NNW,331,5.0,13.0,82,0.00,,FEW,0.00,132.00,VWS V14.01,2013-02-03 13:08:00,
2013-02-03 08:10:00,66.5,61.2,30.12,NNE,15,7.0,15.0,83,0.00,,FEW,0.00,158.00,VWS V14.01,2013-02-03 13:10:00,
2013-02-03 08:12:00,66.5,61.2,30.12,North,360,7.0,13.0,83,0.00,,FEW,0.00,165.00,VWS V14.01,2013-02-03 13:12:00,
2013-02-03 08:13:00,66.5,61.2,30.12,NNE,24,9.0,13.0,83,0.00,,FEW,0.00,167.00,VWS V14.01,2013-02-03 13:13:00,
2013-02-03 08:16:00,66.5,61.2,30.13,North,5,8.0,13.0,83,0.00,,FEW,0.00,183.00,VWS V14.01,2013-02-03 13:16:00,
2013-02-03 08:17:00,66.5,61.2,30.13,North,349,5.0,14.0,83,0.00,,FEW,0.00,186.00,VWS V14.01,2013-02-03 13:17:00,
2013-02-03 08:18:00,66.5,61.2,30.13,NNE,18,13.0,14.0,83,0.00,,FEW,0.00,192.00,VWS V14.01,2013-02-03 13:18:00,
2013-02-03 08:20:00,66.4,60.4,30.13,NNE,19,5.0,14.0,81,0.00,,FEW,0.00,202.00,VWS V14.01,2013-02-03 13:20:00,
2013-02-03 08:21:00,66.4,60.4,30.13,NNE,17,6.0,14.0,81,0.00,,FEW,0.00,197.00,VWS V14.01,2013-02-03 13:21:00,
2013-02-03 08:22:00,66.4,60.4,30.13,NNE,13,5.0,12.0,81,0.00,,FEW,0.00,207.00,VWS V14.01,2013-02-03 13:22:00,
2013-02-03 08:23:00,66.3,60.3,30.13,North,5,8.0,12.0,81,0.00,,FEW,0.00,213.00,VWS V14.01,2013-02-03 13:23:00,
2013-02-03 08:24:00,66.4,60.0,30.13,NW,311,8.0,14.0,80,0.00,,FEW,0.00,213.00,VWS V14.01,2013-02-03 13:24:00,
2013-02-03 08:25:00,66.4,60.0,30.13,NNW,348,9.0,14.0,80,0.00,,FEW,0.00,225.00,VWS V14.01,2013-02-03 13:25:00,
2013-02-03 08:27:00,66.3,59.6,30.13,NNW,327,10.0,14.0,79,0.00,,FEW,0.00,227.00,VWS V14.01,2013-02-03 13:27:00,
2013-02-03 08:28:00,66.4,59.7,30.13,NNW,331,10.0,14.0,79,0.00,,FEW,0.00,232.00,VWS V14.01,2013-02-03 13:28:00,
2013-02-03 08:29:00,66.4,59.7,30.13,NNE,26,14.0,14.0,79,0.00,,FEW,0.00,237.00,VWS V14.01,2013-02-03 13:29:00,
2013-02-03 08:30:00,66.4,59.3,30.13,North,5,13.0,16.0,78,0.00,,FEW,0.00,244.00,VWS V14.01,2013-02-03 13:30:00,
2013-02-03 08:31:00,66.4,59.3,30.13,North,5,10.0,16.0,78,0.00,,FEW,0.00,244.00,VWS V14.01,2013-02-03 13:31:00,
2013-02-03 08:32:00,66.4,59.3,30.13,North,5,11.0,13.0,78,0.00,,FEW,0.00,251.00,VWS V14.01,2013-02-03 13:32:00,
2013-02-03 08:33:00,66.4,59.0,30.13,NNW,331,9.0,13.0,77,0.00,,FEW,0.00,253.00,VWS V14.01,2013-02-03 13:33:00,
2013-02-03 08:34:00,66.5,59.1,30.13,North,355,7.0,13.0,77,0.00,,FEW,0.00,253.00,VWS V14.01,2013-02-03 13:34:00,
2013-02-03 08:36:00,66.5,59.1,30.13,NNE,14,10.0,13.0,77,0.00,,FEW,0.00,265.00,VWS V14.01,2013-02-03 13:36:00,
2013-02-03 08:38:00,66.6,59.5,30.13,NW,326,7.0,13.0,78,0.00,,FEW,0.00,260.00,VWS V14.01,2013-02-03 13:38:00,
2013-02-03 08:39:00,66.6,59.2,30.13,NNE,23,7.0,13.0,77,0.00,,FEW,0.00,272.00,VWS V14.01,2013-02-03 13:39:00,
2013-02-03 08:40:00,66.6,59.2,30.13,NNW,331,5.0,15.0,77,0.00,,FEW,0.00,287.00,VWS V14.01,2013-02-03 13:40:00,
2013-02-03 08:41:00,66.6,59.2,30.13,NNE,17,10.0,15.0,77,0.00,,FEW,0.00,279.00,VWS V14.01,2013-02-03 13:41:00,
2013-02-03 08:43:00,66.7,59.3,30.13,North,350,7.0,11.0,77,0.00,,FEW,0.00,290.00,VWS V14.01,2013-02-03 13:43:00,
2013-02-03 08:44:00,66.7,59.3,30.13,North,5,5.0,11.0,77,0.00,,FEW,0.00,294.00,VWS V14.01,2013-02-03 13:44:00,
2013-02-03 08:46:00,66.8,59.4,30.14,North,355,13.0,13.0,77,0.00,,FEW,0.00,301.00,VWS V14.01,2013-02-03 13:46:00,
2013-02-03 08:48:00,66.7,58.5,30.14,NNE,12,8.0,13.0,75,0.00,,FEW,0.00,306.00,VWS V14.01,2013-02-03 13:48:00,
2013-02-03 08:49:00,66.7,58.5,30.14,North,355,8.0,14.0,75,0.00,,FEW,0.00,308.00,VWS V14.01,2013-02-03 13:49:00,
2013-02-03 08:50:00,66.7,58.5,30.14,North,349,10.0,14.0,75,0.00,,FEW,0.00,315.00,VWS V14.01,2013-02-03 13:50:00,
2013-02-03 08:51:00,66.7,58.5,30.14,North,355,8.0,14.0,75,0.00,,FEW,0.00,315.00,VWS V14.01,2013-02-03 13:51:00,
2013-02-03 08:53:00,66.8,58.6,30.14,North,355,6.0,12.0,75,0.00,,FEW,0.00,320.00,VWS V14.01,2013-02-03 13:53:00,
2013-02-03 08:54:00,66.8,58.6,30.14,North,11,6.0,12.0,75,0.00,,FEW,0.00,325.00,VWS V14.01,2013-02-03 13:54:00,
2013-02-03 08:56:00,66.9,58.7,30.14,North,351,11.0,14.0,75,0.00,,FEW,0.00,327.00,VWS V14.01,2013-02-03 13:56:00,
2013-02-03 08:58:00,66.8,58.3,30.14,NNW,338,9.0,14.0,74,0.00,,FEW,0.00,336.00,VWS V14.01,2013-02-03 13:58:00,
2013-02-03 08:59:00,66.8,58.3,30.14,NNE,24,8.0,14.0,74,0.00,,FEW,0.00,341.00,VWS V14.01,2013-02-03 13:59:00,
2013-02-03 09:00:00,66.8,58.3,30.14,NE,51,6.0,14.0,74,0.00,,FEW,0.00,346.00,VWS V14.01,2013-02-03 14:00:00,
2013-02-03 09:01:00,66.8,58.3,30.14,NNW,339,10.0,10.0,74,0.00,,FEW,0.00,346.00,VWS V14.01,2013-02-03 14:01:00,
2013-02-03 09:03:00,66.9,58.3,30.14,NNE,32,7.0,11.0,74,0.00,,FEW,0.00,357.00,VWS V14.01,2013-02-03 14:03:00,
2013-02-03 09:04:00,66.9,58.3,30.14,North,5,7.0,11.0,74,0.00,,FEW,0.00,359.00,VWS V14.01,2013-02-03 14:04:00,
2013-02-03 09:06:00,66.9,58.3,30.14,NNW,348,10.0,11.0,74,0.00,,FEW,0.00,366.00,VWS V14.01,2013-02-03 14:06:00,
2013-02-03 09:08:00,66.9,58.3,30.14,North,355,9.0,19.0,74,0.00,,FEW,0.00,373.00,VWS V14.01,2013-02-03 14:08:00,
2013-02-03 09:09:00,66.8,58.3,30.14,North,355,6.0,19.0,74,0.00,,FEW,0.00,374.00,VWS V14.01,2013-02-03 14:09:00,
2013-02-03 09:10:00,66.8,58.3,30.14,NE,35,9.0,19.0,74,0.00,,FEW,0.00,381.00,VWS V14.01,2013-02-03 14:10:00,
2013-02-03 09:11:00,66.8,58.3,30.14,NNE,17,8.0,9.0,74,0.00,,FEW,0.00,381.00,VWS V14.01,2013-02-03 14:11:00,
2013-02-03 09:13:00,66.9,58.3,30.14,NNW,329,12.0,12.0,74,0.00,,FEW,0.00,390.00,VWS V14.01,2013-02-03 14:13:00,
2013-02-03 09:14:00,66.9,58.3,30.14,NNW,331,13.0,13.0,74,0.00,,FEW,0.00,390.00,VWS V14.01,2013-02-03 14:14:00,
2013-02-03 09:16:00,66.8,57.9,30.14,NNW,340,8.0,13.0,73,0.00,,FEW,0.00,397.00,VWS V14.01,2013-02-03 14:16:00,
2013-02-03 09:19:00,66.9,58.3,30.14,North,5,8.0,13.0,74,0.00,,FEW,0.00,408.00,VWS V14.01,2013-02-03 14:19:00,
2013-02-03 09:20:00,66.9,58.3,30.14,NNW,338,6.0,17.0,74,0.00,,FEW,0.00,415.00,VWS V14.01,2013-02-03 14:20:00,
2013-02-03 09:21:00,66.9,58.3,30.14,NNE,24,8.0,8.0,74,0.00,,FEW,0.00,422.00,VWS V14.01,2013-02-03 14:21:00,
2013-02-03 09:24:00,67.0,58.5,30.14,NE,46,5.0,13.0,74,0.00,,FEW,0.00,429.00,VWS V14.01,2013-02-03 14:24:00,
2013-02-03 09:26:00,67.0,58.1,30.14,NNW,347,10.0,17.0,73,0.00,,FEW,0.00,439.00,VWS V14.01,2013-02-03 14:26:00,
2013-02-03 09:29:00,67.0,58.1,30.14,ENE,59,12.0,17.0,73,0.00,,FEW,0.00,452.00,VWS V14.01,2013-02-03 14:29:00,
2013-02-03 09:30:00,66.9,58.0,30.15,NNE,14,12.0,17.0,73,0.00,,FEW,0.00,464.00,VWS V14.01,2013-02-03 14:30:00,
2013-02-03 09:31:00,66.9,58.0,30.15,NNW,341,8.0,12.0,73,0.00,,FEW,0.00,464.00,VWS V14.01,2013-02-03 14:31:00,
2013-02-03 09:34:00,66.9,58.3,30.15,NNW,338,12.0,17.0,74,0.00,,FEW,0.00,487.00,VWS V14.01,2013-02-03 14:34:00,
2013-02-03 09:36:00,66.9,58.3,30.15,North,5,12.0,17.0,74,0.00,,FEW,0.00,315.00,VWS V14.01,2013-02-03 14:36:00,
2013-02-03 09:39:00,66.7,58.2,30.15,North,360,6.0,17.0,74,0.00,,FEW,0.00,176.00,VWS V14.01,2013-02-03 14:39:00,
2013-02-03 09:40:00,66.7,58.5,30.15,NNW,343,4.0,17.0,75,0.00,,FEW,0.00,200.00,VWS V14.01,2013-02-03 14:40:00,
2013-02-03 09:42:00,66.7,58.5,30.15,NNW,337,5.0,10.0,75,0.00,,FEW,0.00,149.00,VWS V14.01,2013-02-03 14:42:00,
2013-02-03 09:44:00,66.5,58.0,30.15,North,355,11.0,12.0,74,0.00,,FEW,0.00,216.00,VWS V14.01,2013-02-03 14:44:00,
2013-02-03 09:45:00,66.4,57.9,30.15,NNE,19,12.0,13.0,74,0.00,,FEW,0.00,204.00,VWS V14.01,2013-02-03 14:45:00,
2013-02-03 09:47:00,66.1,57.6,30.16,NE,34,5.0,13.0,74,0.00,,FEW,0.00,213.00,VWS V14.01,2013-02-03 14:47:00,
2013-02-03 09:49:00,65.9,57.4,30.16,North,9,14.0,14.0,74,0.00,,FEW,0.00,221.00,VWS V14.01,2013-02-03 14:49:00,
2013-02-03 09:50:00,65.9,57.4,30.16,NNE,13,7.0,14.0,74,0.00,,FEW,0.00,221.00,VWS V14.01,2013-02-03 14:50:00,
2013-02-03 09:52:00,65.8,57.7,30.16,NNW,330,10.0,14.0,75,0.00,,FEW,0.00,471.00,VWS V14.01,2013-02-03 14:52:00,
2013-02-03 09:54:00,66.0,57.9,30.16,NNE,12,5.0,14.0,75,0.00,,FEW,0.00,533.00,VWS V14.01,2013-02-03 14:54:00,
2013-02-03 09:55:00,66.0,57.9,30.16,NNE,15,10.0,14.0,75,0.00,,FEW,0.00,438.00,VWS V14.01,2013-02-03 14:55:00,
2013-02-03 09:57:00,66.4,58.2,30.16,North,355,9.0,14.0,75,0.00,,FEW,0.00,434.00,VWS V14.01,2013-02-03 14:57:00,
2013-02-03 09:59:00,66.7,58.2,30.16,NW,316,10.0,14.0,74,0.00,,FEW,0.00,541.00,VWS V14.01,2013-02-03 14:59:00,
2013-02-03 10:00:00,66.8,57.9,30.16,NNW,336,10.0,14.0,73,0.00,,FEW,0.00,548.00,VWS V14.01,2013-02-03 15:00:00,
2013-02-03 10:02:00,66.9,58.0,30.16,NNW,339,6.0,13.0,73,0.00,,FEW,0.00,545.00,VWS V14.01,2013-02-03 15:02:00,
2013-02-03 10:04:00,67.2,58.3,30.16,NNE,31,7.0,13.0,73,0.00,,FEW,0.00,554.00,VWS V14.01,2013-02-03 15:04:00,
2013-02-03 10:05:00,67.2,58.3,30.16,North,5,5.0,13.0,73,0.00,,FEW,0.00,554.00,VWS V14.01,2013-02-03 15:05:00,
2013-02-03 10:07:00,67.3,58.4,30.16,NNW,348,9.0,13.0,73,0.00,,FEW,0.00,559.00,VWS V14.01,2013-02-03 15:07:00,
2013-02-03 10:10:00,67.4,58.1,30.16,NNW,338,11.0,13.0,72,0.00,,FEW,0.00,566.00,VWS V14.01,2013-02-03 15:10:00,
2013-02-03 10:13:00,67.4,58.1,30.16,NNE,24,6.0,14.0,72,0.00,,FEW,0.00,571.00,VWS V14.01,2013-02-03 15:13:00,
2013-02-03 10:15:00,67.5,58.2,30.16,NNW,344,7.0,14.0,72,0.00,,FEW,0.00,580.00,VWS V14.01,2013-02-03 15:15:00,
2013-02-03 10:18:00,67.7,58.4,30.16,NNE,29,9.0,14.0,72,0.00,,FEW,0.00,587.00,VWS V14.01,2013-02-03 15:18:00,
2013-02-03 10:20:00,67.9,58.5,30.16,NNE,26,8.0,14.0,72,0.00,,FEW,0.00,592.00,VWS V14.01,2013-02-03 15:20:00,
2013-02-03 10:23:00,68.3,58.2,30.16,North,10,10.0,11.0,70,0.00,,FEW,0.00,598.00,VWS V14.01,2013-02-03 15:23:00,
2013-02-03 10:25:00,68.6,58.4,30.16,NE,52,3.0,11.0,70,0.00,,FEW,0.00,603.00,VWS V14.01,2013-02-03 15:25:00,
2013-02-03 10:28:00,68.9,58.3,30.16,NNE,13,4.0,14.0,69,0.00,,FEW,0.00,612.00,VWS V14.01,2013-02-03 15:28:00,
2013-02-03 10:30:00,68.9,57.9,30.16,North,355,5.0,14.0,68,0.00,,FEW,0.00,613.00,VWS V14.01,2013-02-03 15:30:00,
2013-02-03 10:31:00,68.8,57.8,30.16,ENE,57,10.0,14.0,68,0.00,,FEW,0.00,617.00,VWS V14.01,2013-02-03 15:31:00,
2013-02-03 10:33:00,68.9,58.3,30.16,North,5,7.0,15.0,69,0.00,,FEW,0.00,622.00,VWS V14.01,2013-02-03 15:33:00,
2013-02-03 10:35:00,68.8,58.2,30.16,North,360,7.0,15.0,69,0.00,,FEW,0.00,631.00,VWS V14.01,2013-02-03 15:35:00,
2013-02-03 10:36:00,68.9,58.3,30.16,North,355,7.0,15.0,69,0.00,,FEW,0.00,631.00,VWS V14.01,2013-02-03 15:36:00,
2013-02-03 10:38:00,69.1,58.9,30.16,North,5,9.0,15.0,70,0.00,,FEW,0.00,640.00,VWS V14.01,2013-02-03 15:38:00,
2013-02-03 10:40:00,69.2,58.2,30.16,NE,44,7.0,15.0,68,0.00,,FEW,0.00,645.00,VWS V14.01,2013-02-03 15:40:00,
2013-02-03 10:41:00,69.2,58.2,30.16,NE,43,4.0,15.0,68,0.00,,FEW,0.00,645.00,VWS V14.01,2013-02-03 15:41:00,
2013-02-03 10:43:00,69.3,58.3,30.16,North,355,8.0,9.0,68,0.00,,FEW,0.00,649.00,VWS V14.01,2013-02-03 15:43:00,
2013-02-03 10:45:00,69.5,58.5,30.15,NNE,32,6.0,13.0,68,0.00,,FEW,0.00,652.00,VWS V14.01,2013-02-03 15:45:00,
2013-02-03 10:46:00,69.6,58.6,30.15,NE,40,8.0,13.0,68,0.00,,FEW,0.00,656.00,VWS V14.01,2013-02-03 15:46:00,
2013-02-03 10:48:00,69.7,58.3,30.15,North,355,11.0,15.0,67,0.00,,FEW,0.00,661.00,VWS V14.01,2013-02-03 15:48:00,
2013-02-03 10:50:00,69.7,58.3,30.15,North,9,7.0,15.0,67,0.00,,FEW,0.00,666.00,VWS V14.01,2013-02-03 15:50:00,
2013-02-03 10:51:00,69.7,58.3,30.15,NNE,17,5.0,15.0,67,0.00,,FEW,0.00,666.00,VWS V14.01,2013-02-03 15:51:00,
2013-02-03 10:53:00,69.7,58.3,30.15,NNE,29,10.0,12.0,67,0.00,,FEW,0.00,670.00,VWS V14.01,2013-02-03 15:53:00,
2013-02-03 10:55:00,69.6,58.2,30.15,North,355,10.0,12.0,67,0.00,,FEW,0.00,675.00,VWS V14.01,2013-02-03 15:55:00,
2013-02-03 10:56:00,69.6,58.6,30.15,NNW,331,9.0,12.0,68,0.00,,FEW,0.00,675.00,VWS V14.01,2013-02-03 15:56:00,
2013-02-03 10:58:00,69.8,58.4,30.15,North,11,8.0,12.0,67,0.00,,FEW,0.00,682.00,VWS V14.01,2013-02-03 15:58:00,
2013-02-03 11:00:00,69.9,58.5,30.15,NNE,17,5.0,12.0,67,0.00,,FEW,0.00,686.00,VWS V14.01,2013-02-03 16:00:00,
2013-02-03 11:01:00,69.9,58.5,30.15,NE,51,5.0,5.0,67,0.00,,FEW,0.00,687.00,VWS V14.01,2013-02-03 16:01:00,
2013-02-03 11:04:00,70.0,58.5,30.15,North,360,9.0,12.0,67,0.00,,FEW,0.00,691.00,VWS V14.01,2013-02-03 16:04:00,
2013-02-03 11:05:00,70.0,58.5,30.15,North,349,11.0,13.0,67,0.00,,FEW,0.00,694.00,VWS V14.01,2013-02-03 16:05:00,
2013-02-03 11:06:00,70.0,58.5,30.15,NNE,19,9.0,13.0,67,0.00,,FEW,0.00,696.00,VWS V14.01,2013-02-03 16:06:00,
2013-02-03 11:09:00,70.0,58.1,30.15,North,5,7.0,14.0,66,0.00,,FEW,0.00,701.00,VWS V14.01,2013-02-03 16:09:00,
2013-02-03 11:10:00,70.0,57.7,30.15,North,350,7.0,14.0,65,0.00,,FEW,0.00,703.00,VWS V14.01,2013-02-03 16:10:00,
2013-02-03 11:11:00,70.1,58.2,30.15,NE,34,4.0,6.0,66,0.00,,FEW,0.00,703.00,VWS V14.01,2013-02-03 16:11:00,
2013-02-03 11:14:00,70.2,58.3,30.15,North,351,11.0,12.0,66,0.00,,FEW,0.00,712.00,VWS V14.01,2013-02-03 16:14:00,
2013-02-03 11:16:00,70.2,58.3,30.14,NNE,12,12.0,13.0,66,0.00,,FEW,0.00,714.00,VWS V14.01,2013-02-03 16:16:00,
2013-02-03 11:19:00,70.2,58.7,30.14,NNW,328,7.0,13.0,67,0.00,,FEW,0.00,721.00,VWS V14.01,2013-02-03 16:19:00,
2013-02-03 11:20:00,70.5,59.0,30.14,North,5,6.0,13.0,67,0.00,,FEW,0.00,724.00,VWS V14.01,2013-02-03 16:20:00,
2013-02-03 11:21:00,70.5,59.0,30.14,North,5,10.0,13.0,67,0.00,,FEW,0.00,722.00,VWS V14.01,2013-02-03 16:21:00,
2013-02-03 11:25:00,70.6,58.3,30.14,North,355,5.0,14.0,65,0.00,,FEW,0.00,731.00,VWS V14.01,2013-02-03 16:25:00,
2013-02-03 11:26:00,70.6,58.3,30.14,North,360,9.0,14.0,65,0.00,,FEW,0.00,731.00,VWS V14.01,2013-02-03 16:26:00,
2013-02-03 11:30:00,70.8,57.6,30.14,NNW,342,9.0,14.0,63,0.00,,FEW,0.00,742.00,VWS V14.01,2013-02-03 16:30:00,
2013-02-03 11:31:00,70.8,57.6,30.14,North,5,13.0,14.0,63,0.00,,FEW,0.00,744.00,VWS V14.01,2013-02-03 16:31:00,
2013-02-03 11:32:00,70.8,57.2,30.14,NNE,24,5.0,10.0,62,0.00,,FEW,0.00,737.00,VWS V14.01,2013-02-03 16:32:00,
2013-02-03 11:35:00,70.9,57.7,30.14,North,5,3.0,11.0,63,0.00,,FEW,0.00,749.00,VWS V14.01,2013-02-03 16:35:00,
2013-02-03 11:36:00,71.0,57.8,30.14,North,355,9.0,13.0,63,0.00,,FEW,0.00,751.00,VWS V14.01,2013-02-03 16:36:00,
2013-02-03 11:37:00,71.1,57.9,30.14,NNE,14,6.0,13.0,63,0.00,,FEW,0.00,752.00,VWS V14.01,2013-02-03 16:37:00,
2013-02-03 11:40:00,71.0,57.3,30.14,North,9,5.0,15.0,62,0.00,,FEW,0.00,754.00,VWS V14.01,2013-02-03 16:40:00,
2013-02-03 11:41:00,71.0,57.3,30.14,North,355,8.0,15.0,62,0.00,,FEW,0.00,759.00,VWS V14.01,2013-02-03 16:41:00,
2013-02-03 11:42:00,71.1,57.4,30.14,NNE,25,5.0,12.0,62,0.00,,FEW,0.00,754.00,VWS V14.01,2013-02-03 16:42:00,
2013-02-03 11:45:00,71.2,58.0,30.14,NNW,340,9.0,12.0,63,0.00,,FEW,0.00,758.00,VWS V14.01,2013-02-03 16:45:00,
2013-02-03 11:46:00,71.2,57.5,30.13,North,5,8.0,13.0,62,0.00,,FEW,0.00,758.00,VWS V14.01,2013-02-03 16:46:00,
2013-02-03 11:47:00,71.2,58.0,30.13,NNE,20,6.0,13.0,63,0.00,,FEW,0.00,758.00,VWS V14.01,2013-02-03 16:47:00,
2013-02-03 11:50:00,71.6,58.3,30.13,NNE,29,7.0,13.0,63,0.00,,FEW,0.00,761.00,VWS V14.01,2013-02-03 16:50:00,
2013-02-03 11:51:00,71.6,58.3,30.13,NNE,28,4.0,13.0,63,0.00,,FEW,0.00,763.00,VWS V14.01,2013-02-03 16:51:00,
2013-02-03 11:52:00,71.7,58.5,30.13,NE,42,10.0,10.0,63,0.00,,FEW,0.00,765.00,VWS V14.01,2013-02-03 16:52:00,
2013-02-03 11:55:00,71.4,57.7,30.13,NNE,23,8.0,13.0,62,0.00,,FEW,0.00,766.00,VWS V14.01,2013-02-03 16:55:00,
2013-02-03 11:56:00,71.3,57.6,30.13,NE,40,6.0,13.0,62,0.00,,FEW,0.00,768.00,VWS V14.01,2013-02-03 16:56:00,
2013-02-03 11:57:00,71.3,57.6,30.13,NW,325,8.0,13.0,62,0.00,,FEW,0.00,766.00,VWS V14.01,2013-02-03 16:57:00,
2013-02-03 12:00:00,71.6,57.9,30.13,North,349,8.0,13.0,62,0.00,,FEW,0.00,772.00,VWS V14.01,2013-02-03 17:00:00,
2013-02-03 12:01:00,71.5,57.4,30.13,North,11,8.0,13.0,61,0.00,,FEW,0.00,772.00,VWS V14.01,2013-02-03 17:01:00,
2013-02-03 12:02:00,71.5,57.4,30.13,NE,42,8.0,11.0,61,0.00,,FEW,0.00,772.00,VWS V14.01,2013-02-03 17:02:00,
2013-02-03 12:05:00,71.5,57.8,30.13,NNW,341,8.0,13.0,62,0.00,,FEW,0.00,779.00,VWS V14.01,2013-02-03 17:05:00,
2013-02-03 12:06:00,71.6,57.9,30.13,North,5,5.0,13.0,62,0.00,,FEW,0.00,780.00,VWS V14.01,2013-02-03 17:06:00,
2013-02-03 12:07:00,71.6,57.9,30.13,North,351,9.0,13.0,62,0.00,,FEW,0.00,780.00,VWS V14.01,2013-02-03 17:07:00,
2013-02-03 12:10:00,71.8,58.1,30.13,NNE,23,6.0,13.0,62,0.00,,FEW,0.00,784.00,VWS V14.01,2013-02-03 17:10:00,
2013-02-03 12:11:00,71.8,58.1,30.13,NNW,348,11.0,11.0,62,0.00,,FEW,0.00,782.00,VWS V14.01,2013-02-03 17:11:00,
2013-02-03 12:12:00,71.8,58.1,30.13,NNE,29,7.0,11.0,62,0.00,,FEW,0.00,784.00,VWS V14.01,2013-02-03 17:12:00,
2013-02-03 12:15:00,71.6,57.5,30.12,North,350,5.0,11.0,61,0.00,,FEW,0.00,786.00,VWS V14.01,2013-02-03 17:15:00,
2013-02-03 12:16:00,71.6,57.5,30.12,NNW,340,7.0,11.0,61,0.00,,FEW,0.00,786.00,VWS V14.01,2013-02-03 17:16:00,
2013-02-03 12:17:00,71.6,57.5,30.12,NNE,16,8.0,11.0,61,0.00,,FEW,0.00,788.00,VWS V14.01,2013-02-03 17:17:00,
2013-02-03 12:20:00,71.9,57.3,30.12,NE,44,5.0,11.0,60,0.00,,FEW,0.00,798.00,VWS V14.01,2013-02-03 17:20:00,
2013-02-03 12:21:00,71.9,57.3,30.12,North,5,11.0,11.0,60,0.00,,FEW,0.00,800.00,VWS V14.01,2013-02-03 17:21:00,
2013-02-03 12:22:00,72.0,57.4,30.12,North,355,7.0,11.0,60,0.00,,FEW,0.00,800.00,VWS V14.01,2013-02-03 17:22:00,
2013-02-03 12:25:00,72.0,56.9,30.12,North,360,6.0,13.0,59,0.00,,FEW,0.00,663.00,VWS V14.01,2013-02-03 17:25:00,
2013-02-03 12:26:00,71.9,56.8,30.12,NNE,22,7.0,13.0,59,0.00,,FEW,0.00,795.00,VWS V14.01,2013-02-03 17:26:00,
2013-02-03 12:27:00,71.9,57.3,30.12,NNE,16,9.0,13.0,60,0.00,,FEW,0.00,795.00,VWS V14.01,2013-02-03 17:27:00,
2013-02-03 12:30:00,71.9,56.8,30.11,NNE,13,7.0,13.0,59,0.00,,FEW,0.00,795.00,VWS V14.01,2013-02-03 17:30:00,
2013-02-03 12:31:00,71.9,56.8,30.11,North,350,9.0,13.0,59,0.00,,FEW,0.00,793.00,VWS V14.01,2013-02-03 17:31:00,
2013-02-03 12:32:00,71.9,56.8,30.11,North,360,5.0,7.0,59,0.00,,FEW,0.00,795.00,VWS V14.01,2013-02-03 17:32:00,
2013-02-03 12:36:00,71.9,57.3,30.11,NE,42,7.0,13.0,60,0.00,,FEW,0.00,780.00,VWS V14.01,2013-02-03 17:36:00,
2013-02-03 12:37:00,71.9,57.3,30.11,NNW,342,6.0,13.0,60,0.00,,FEW,0.00,793.00,VWS V14.01,2013-02-03 17:37:00,
2013-02-03 12:40:00,72.3,57.2,30.11,NNE,27,5.0,13.0,59,0.00,,FEW,0.00,809.00,VWS V14.01,2013-02-03 17:40:00,
2013-02-03 12:41:00,72.3,57.2,30.11,North,360,7.0,13.0,59,0.00,,FEW,0.00,809.00,VWS V14.01,2013-02-03 17:41:00,
2013-02-03 12:42:00,72.3,57.2,30.11,North,11,8.0,9.0,59,0.00,,FEW,0.00,802.00,VWS V14.01,2013-02-03 17:42:00,
2013-02-03 12:46:00,72.3,56.7,30.11,NNW,329,6.0,13.0,58,0.00,,FEW,0.00,779.00,VWS V14.01,2013-02-03 17:46:00,
2013-02-03 12:47:00,72.2,56.6,30.11,NNE,17,5.0,13.0,58,0.00,,FEW,0.00,729.00,VWS V14.01,2013-02-03 17:47:00,
2013-02-03 12:48:00,72.2,57.1,30.11,North,360,9.0,13.0,59,0.00,,FEW,0.00,775.00,VWS V14.01,2013-02-03 17:48:00,
2013-02-03 12:50:00,72.4,56.8,30.11,North,351,12.0,14.0,58,0.00,,FEW,0.00,807.00,VWS V14.01,2013-02-03 17:50:00,
2013-02-03 12:51:00,72.4,56.8,30.11,North,5,10.0,13.0,58,0.00,,FEW,0.00,784.00,VWS V14.01,2013-02-03 17:51:00,
2013-02-03 12:52:00,72.3,56.7,30.11,North,355,11.0,12.0,58,0.00,,FEW,0.00,807.00,VWS V14.01,2013-02-03 17:52:00,
2013-02-03 12:53:00,72.2,57.1,30.11,North,5,6.0,12.0,59,0.00,,FEW,0.00,793.00,VWS V14.01,2013-02-03 17:53:00,
2013-02-03 13:00:00,72.0,56.4,30.11,NNW,344,11.0,11.0,58,0.00,,FEW,0.00,807.00,VWS V14.01,2013-02-03 18:00:00,
2013-02-03 13:05:00,72.5,56.9,30.10,NNE,28,5.0,10.0,58,0.00,,FEW,0.00,691.00,VWS V14.01,2013-02-03 18:05:00,
2013-02-03 13:10:00,72.6,57.0,30.10,NNW,338,7.0,10.0,58,0.00,,FEW,0.00,759.00,VWS V14.01,2013-02-03 18:10:00,
2013-02-03 13:15:00,72.3,56.7,30.09,North,9,7.0,10.0,58,0.00,,FEW,0.00,759.00,VWS V14.01,2013-02-03 18:15:00,
2013-02-03 13:16:00,72.3,56.7,30.09,NNE,24,7.0,10.0,58,0.00,,FEW,0.00,759.00,VWS V14.01,2013-02-03 18:16:00,
2013-02-03 13:20:00,72.6,57.0,30.09,NNE,24,6.0,10.0,58,0.00,,FEW,0.00,788.00,VWS V14.01,2013-02-03 18:20:00,
2013-02-03 13:21:00,72.6,57.0,30.09,NNE,24,6.0,10.0,58,0.00,,FEW,0.00,788.00,VWS V14.01,2013-02-03 18:21:00,
2013-02-03 13:25:00,72.4,56.8,30.09,NNW,338,9.0,12.0,58,0.00,,FEW,0.00,752.00,VWS V14.01,2013-02-03 18:25:00,
2013-02-03 13:26:00,72.4,56.8,30.09,North,355,10.0,12.0,58,0.00,,FEW,0.00,657.00,VWS V14.01,2013-02-03 18:26:00,
2013-02-03 13:30:00,72.5,57.4,30.08,NNE,24,3.0,12.0,59,0.00,,FEW,0.00,770.00,VWS V14.01,2013-02-03 18:30:00,
2013-02-03 13:31:00,72.5,57.4,30.08,NNE,15,4.0,12.0,59,0.00,,FEW,0.00,770.00,VWS V14.01,2013-02-03 18:31:00,
2013-02-03 13:36:00,73.0,57.8,30.08,North,355,9.0,9.0,59,0.00,,FEW,0.00,765.00,VWS V14.01,2013-02-03 18:36:00,
2013-02-03 13:41:00,73.1,57.9,30.08,NE,46,8.0,11.0,59,0.00,,FEW,0.00,766.00,VWS V14.01,2013-02-03 18:41:00,
2013-02-03 13:46:00,72.8,58.6,30.08,NNE,24,6.0,7.0,61,0.00,,FEW,0.00,693.00,VWS V14.01,2013-02-03 18:46:00,
2013-02-03 13:51:00,72.5,58.8,30.08,NNW,344,7.0,10.0,62,0.00,,FEW,0.00,761.00,VWS V14.01,2013-02-03 18:51:00,
2013-02-03 13:56:00,72.5,58.8,30.08,NNW,329,5.0,8.0,62,0.00,,FEW,0.00,742.00,VWS V14.01,2013-02-03 18:56:00,
2013-02-03 14:01:00,72.5,58.8,30.07,NNE,22,6.0,10.0,62,0.00,,FEW,0.00,737.00,VWS V14.01,2013-02-03 19:01:00,
2013-02-03 14:06:00,72.4,58.7,30.07,NNE,27,6.0,9.0,62,0.00,,FEW,0.00,701.00,VWS V14.01,2013-02-03 19:06:00,
2013-02-03 14:07:00,72.4,58.2,30.07,NE,40,3.0,9.0,61,0.00,,FEW,0.00,712.00,VWS V14.01,2013-02-03 19:07:00,
2013-02-03 14:11:00,72.8,59.0,30.07,NNE,13,5.0,9.0,62,0.00,,FEW,0.00,696.00,VWS V14.01,2013-02-03 19:11:00,
2013-02-03 14:12:00,72.8,59.0,30.07,NE,36,6.0,6.0,62,0.00,,FEW,0.00,696.00,VWS V14.01,2013-02-03 19:12:00,
2013-02-03 14:16:00,72.5,59.2,30.06,NNE,33,7.0,8.0,63,0.00,,FEW,0.00,705.00,VWS V14.01,2013-02-03 19:16:00,
2013-02-03 14:17:00,72.4,59.1,30.06,NNW,342,7.0,8.0,63,0.00,,FEW,0.00,661.00,VWS V14.01,2013-02-03 19:17:00,
2013-02-03 14:21:00,71.8,59.4,30.06,North,360,7.0,9.0,65,0.00,,FEW,0.00,701.00,VWS V14.01,2013-02-03 19:21:00,
2013-02-03 14:22:00,71.9,59.5,30.06,NNW,331,8.0,8.0,65,0.00,,FEW,0.00,701.00,VWS V14.01,2013-02-03 19:22:00,
2013-02-03 14:26:00,72.0,59.2,30.06,NW,304,6.0,9.0,64,0.00,,FEW,0.00,661.00,VWS V14.01,2013-02-03 19:26:00,
2013-02-03 14:27:00,72.0,59.2,30.06,NNW,346,8.0,9.0,64,0.00,,FEW,0.00,661.00,VWS V14.01,2013-02-03 19:27:00,
2013-02-03 14:31:00,71.7,59.3,30.06,NNW,329,3.0,6.0,65,0.00,,FEW,0.00,666.00,VWS V14.01,2013-02-03 19:31:00,
2013-02-03 14:32:00,71.7,59.3,30.06,NNW,329,3.0,6.0,65,0.00,,FEW,0.00,666.00,VWS V14.01,2013-02-03 19:32:00,
2013-02-03 14:33:00,71.7,59.3,30.06,NNW,327,7.0,10.0,65,0.00,,FEW,0.00,684.00,VWS V14.01,2013-02-03 19:33:00,
2013-02-03 14:37:00,71.5,59.1,30.06,NNE,15,3.0,10.0,65,0.00,,FEW,0.00,650.00,VWS V14.01,2013-02-03 19:37:00,
2013-02-03 14:38:00,71.6,59.7,30.06,North,5,4.0,10.0,66,0.00,,FEW,0.00,666.00,VWS V14.01,2013-02-03 19:38:00,
2013-02-03 14:42:00,71.6,59.2,30.06,NNW,327,6.0,8.0,65,0.00,,FEW,0.00,657.00,VWS V14.01,2013-02-03 19:42:00,
2013-02-03 14:43:00,71.4,59.0,30.06,NNW,338,5.0,8.0,65,0.00,,FEW,0.00,656.00,VWS V14.01,2013-02-03 19:43:00,
2013-02-03 14:47:00,71.2,59.3,30.06,NNW,338,6.0,8.0,66,0.00,,FEW,0.00,643.00,VWS V14.01,2013-02-03 19:47:00,
2013-02-03 14:48:00,71.1,59.2,30.06,NW,309,5.0,8.0,66,0.00,,FEW,0.00,643.00,VWS V14.01,2013-02-03 19:48:00,
2013-02-03 14:52:00,71.2,59.3,30.06,NW,321,5.0,9.0,66,0.00,,FEW,0.00,633.00,VWS V14.01,2013-02-03 19:52:00,
2013-02-03 14:53:00,71.2,59.3,30.06,North,355,5.0,9.0,66,0.00,,FEW,0.00,628.00,VWS V14.01,2013-02-03 19:53:00,
2013-02-03 14:57:00,71.1,58.8,30.06,NNE,13,6.0,9.0,65,0.00,,FEW,0.00,617.00,VWS V14.01,2013-02-03 19:57:00,
2013-02-03 14:58:00,71.1,59.2,30.06,NW,311,5.0,9.0,66,0.00,,FEW,0.00,613.00,VWS V14.01,2013-02-03 19:58:00,
2013-02-03 15:02:00,71.1,59.2,30.06,North,350,6.0,8.0,66,0.00,,FEW,0.00,606.00,VWS V14.01,2013-02-03 20:02:00,
2013-02-03 15:03:00,71.0,59.1,30.06,NNE,14,4.0,10.0,66,0.00,,FEW,0.00,603.00,VWS V14.01,2013-02-03 20:03:00,
2013-02-03 15:07:00,71.3,59.4,30.06,North,355,5.0,10.0,66,0.00,,FEW,0.00,592.00,VWS V14.01,2013-02-03 20:07:00,
2013-02-03 15:08:00,71.3,58.9,30.06,NW,325,4.0,10.0,65,0.00,,FEW,0.00,591.00,VWS V14.01,2013-02-03 20:08:00,
2013-02-03 15:12:00,71.0,59.1,30.06,North,5,7.0,8.0,66,0.00,,FEW,0.00,578.00,VWS V14.01,2013-02-03 20:12:00,
2013-02-03 15:13:00,71.0,59.1,30.06,North,5,8.0,8.0,66,0.00,,FEW,0.00,578.00,VWS V14.01,2013-02-03 20:13:00,
2013-02-03 15:17:00,71.0,59.1,30.06,NNW,348,4.0,8.0,66,0.00,,FEW,0.00,566.00,VWS V14.01,2013-02-03 20:17:00,
2013-02-03 15:18:00,71.0,59.1,30.06,NNW,330,4.0,8.0,66,0.00,,FEW,0.00,559.00,VWS V14.01,2013-02-03 20:18:00,
2013-02-03 15:19:00,71.1,59.2,30.06,NNW,343,5.0,8.0,66,0.00,,FEW,0.00,540.00,VWS V14.01,2013-02-03 20:19:00,
2013-02-03 15:22:00,71.2,58.8,30.06,NNW,347,6.0,6.0,65,0.00,,FEW,0.00,526.00,VWS V14.01,2013-02-03 20:22:00,
2013-02-03 15:23:00,71.3,58.9,30.06,North,360,4.0,8.0,65,0.00,,FEW,0.00,526.00,VWS V14.01,2013-02-03 20:23:00,
2013-02-03 15:24:00,71.4,59.0,30.06,North,355,4.0,8.0,65,0.00,,FEW,0.00,550.00,VWS V14.01,2013-02-03 20:24:00,
2013-02-03 15:27:00,71.4,58.6,30.06,North,355,5.0,8.0,64,0.00,,FEW,0.00,464.00,VWS V14.01,2013-02-03 20:27:00,
2013-02-03 15:28:00,71.4,58.6,30.06,NNW,331,6.0,8.0,64,0.00,,FEW,0.00,464.00,VWS V14.01,2013-02-03 20:28:00,
2013-02-03 15:29:00,71.3,58.5,30.06,NNW,342,7.0,9.0,64,0.00,,FEW,0.00,557.00,VWS V14.01,2013-02-03 20:29:00,
2013-02-03 15:32:00,70.9,58.6,30.05,NNW,331,6.0,7.0,65,0.00,,FEW,0.00,457.00,VWS V14.01,2013-02-03 20:32:00,
2013-02-03 15:33:00,70.9,59.0,30.05,NNW,329,5.0,7.0,66,0.00,,FEW,0.00,457.00,VWS V14.01,2013-02-03 20:33:00,
2013-02-03 15:34:00,70.9,59.0,30.05,NNW,338,3.0,7.0,66,0.00,,FEW,0.00,457.00,VWS V14.01,2013-02-03 20:34:00,
2013-02-03 15:37:00,70.8,58.9,30.05,NNW,341,4.0,8.0,66,0.00,,FEW,0.00,503.00,VWS V14.01,2013-02-03 20:37:00,
2013-02-03 15:38:00,70.8,58.9,30.05,North,355,5.0,8.0,66,0.00,,FEW,0.00,468.00,VWS V14.01,2013-02-03 20:38:00,
2013-02-03 15:39:00,70.8,58.9,30.05,NNW,348,5.0,8.0,66,0.00,,FEW,0.00,438.00,VWS V14.01,2013-02-03 20:39:00,
2013-02-03 15:43:00,71.1,59.2,30.05,North,350,5.0,8.0,66,0.00,,FEW,0.00,517.00,VWS V14.01,2013-02-03 20:43:00,
2013-02-03 15:44:00,71.1,59.2,30.05,NW,325,7.0,8.0,66,0.00,,FEW,0.00,506.00,VWS V14.01,2013-02-03 20:44:00,
2013-02-03 15:48:00,71.0,59.1,30.06,NW,311,4.0,9.0,66,0.00,,FEW,0.00,480.00,VWS V14.01,2013-02-03 20:48:00,
2013-02-03 15:49:00,71.0,58.7,30.06,NW,318,4.0,9.0,65,0.00,,FEW,0.00,473.00,VWS V14.01,2013-02-03 20:49:00,
2013-02-03 15:53:00,71.0,59.1,30.06,North,355,5.0,9.0,66,0.00,,FEW,0.00,454.00,VWS V14.01,2013-02-03 20:53:00,
2013-02-03 15:54:00,71.0,59.1,30.06,NW,323,3.0,9.0,66,0.00,,FEW,0.00,399.00,VWS V14.01,2013-02-03 20:54:00,
2013-02-03 15:55:00,71.0,59.1,30.06,NW,324,6.0,9.0,66,0.00,,FEW,0.00,438.00,VWS V14.01,2013-02-03 20:55:00,
2013-02-03 15:58:00,70.9,58.1,30.06,North,355,6.0,9.0,64,0.00,,FEW,0.00,436.00,VWS V14.01,2013-02-03 20:58:00,
2013-02-03 15:59:00,70.8,58.0,30.06,NW,318,2.0,9.0,64,0.00,,FEW,0.00,431.00,VWS V14.01,2013-02-03 20:59:00,
2013-02-03 16:00:00,70.9,58.1,30.06,NW,321,6.0,9.0,64,0.00,,FEW,0.00,429.00,VWS V14.01,2013-02-03 21:00:00,
2013-02-03 16:03:00,70.9,58.1,30.06,NW,315,4.0,8.0,64,0.00,,FEW,0.00,420.00,VWS V14.01,2013-02-03 21:03:00,
2013-02-03 16:04:00,70.9,58.1,30.06,WNW,301,7.0,9.0,64,0.00,,FEW,0.00,417.00,VWS V14.01,2013-02-03 21:04:00,
2013-02-03 16:05:00,70.9,58.1,30.06,North,349,5.0,9.0,64,0.00,,FEW,0.00,413.00,VWS V14.01,2013-02-03 21:05:00,
2013-02-03 16:08:00,71.0,58.7,30.06,North,360,9.0,9.0,65,0.00,,FEW,0.00,404.00,VWS V14.01,2013-02-03 21:08:00,
2013-02-03 16:09:00,71.0,58.2,30.06,NNW,340,9.0,10.0,64,0.00,,FEW,0.00,399.00,VWS V14.01,2013-02-03 21:09:00,
2013-02-03 16:10:00,71.0,58.2,30.06,NNW,330,9.0,10.0,64,0.00,,FEW,0.00,397.00,VWS V14.01,2013-02-03 21:10:00,
2013-02-03 16:13:00,70.6,57.4,30.06,NNW,348,7.0,9.0,63,0.00,,FEW,0.00,383.00,VWS V14.01,2013-02-03 21:13:00,
2013-02-03 16:14:00,70.6,57.4,30.06,North,10,7.0,9.0,63,0.00,,FEW,0.00,381.00,VWS V14.01,2013-02-03 21:14:00,
2013-02-03 16:15:00,70.5,57.3,30.06,North,355,9.0,9.0,63,0.00,,FEW,0.00,381.00,VWS V14.01,2013-02-03 21:15:00,
2013-02-03 16:18:00,70.3,58.0,30.05,North,355,5.0,9.0,65,0.00,,FEW,0.00,369.00,VWS V14.01,2013-02-03 21:18:00,
2013-02-03 16:19:00,70.3,57.6,30.05,NNW,345,8.0,9.0,64,0.00,,FEW,0.00,364.00,VWS V14.01,2013-02-03 21:19:00,
2013-02-03 16:20:00,70.4,57.7,30.05,North,350,10.0,10.0,64,0.00,,FEW,0.00,362.00,VWS V14.01,2013-02-03 21:20:00,
2013-02-03 16:23:00,70.3,57.1,30.05,North,355,6.0,9.0,63,0.00,,FEW,0.00,350.00,VWS V14.01,2013-02-03 21:23:00,
2013-02-03 16:24:00,70.3,57.1,30.05,NNE,13,5.0,9.0,63,0.00,,FEW,0.00,350.00,VWS V14.01,2013-02-03 21:24:00,
2013-02-03 16:25:00,70.3,57.1,30.05,NNW,343,9.0,9.0,63,0.00,,FEW,0.00,343.00,VWS V14.01,2013-02-03 21:25:00,
2013-02-03 16:29:00,70.2,57.5,30.05,NNW,344,8.0,11.0,64,0.00,,FEW,0.00,329.00,VWS V14.01,2013-02-03 21:29:00,
2013-02-03 16:30:00,70.1,57.4,30.05,NNW,340,3.0,11.0,64,0.00,,FEW,0.00,327.00,VWS V14.01,2013-02-03 21:30:00,
2013-02-03 16:34:00,70.2,57.5,30.05,NW,325,11.0,11.0,64,0.00,,FEW,0.00,313.00,VWS V14.01,2013-02-03 21:34:00,
2013-02-03 16:35:00,70.2,57.9,30.05,NNW,342,7.0,11.0,65,0.00,,FEW,0.00,306.00,VWS V14.01,2013-02-03 21:35:00,
2013-02-03 16:39:00,69.9,58.0,30.05,North,355,6.0,11.0,66,0.00,,FEW,0.00,295.00,VWS V14.01,2013-02-03 21:39:00,
2013-02-03 16:40:00,69.9,58.0,30.05,North,355,6.0,11.0,66,0.00,,FEW,0.00,288.00,VWS V14.01,2013-02-03 21:40:00,
2013-02-03 16:44:00,69.9,58.5,30.05,West,275,8.0,9.0,67,0.00,,FEW,0.00,276.00,VWS V14.01,2013-02-03 21:44:00,
2013-02-03 16:45:00,69.9,58.5,30.05,WNW,295,3.0,11.0,67,0.00,,FEW,0.00,276.00,VWS V14.01,2013-02-03 21:45:00,
2013-02-03 16:49:00,69.9,58.5,30.06,NNW,340,6.0,11.0,67,0.00,,FEW,0.00,258.00,VWS V14.01,2013-02-03 21:49:00,
2013-02-03 16:50:00,69.9,58.0,30.06,NNW,344,6.0,11.0,66,0.00,,FEW,0.00,253.00,VWS V14.01,2013-02-03 21:50:00,
2013-02-03 16:51:00,69.9,58.0,30.06,NNW,329,6.0,11.0,66,0.00,,FEW,0.00,253.00,VWS V14.01,2013-02-03 21:51:00,
2013-02-03 16:54:00,69.9,58.0,30.06,North,355,5.0,7.0,66,0.00,,FEW,0.00,241.00,VWS V14.01,2013-02-03 21:54:00,
2013-02-03 16:55:00,69.9,58.0,30.06,NNE,16,6.0,7.0,66,0.00,,FEW,0.00,237.00,VWS V14.01,2013-02-03 21:55:00,
2013-02-03 16:56:00,69.9,58.0,30.06,North,11,8.0,11.0,66,0.00,,FEW,0.00,234.00,VWS V14.01,2013-02-03 21:56:00,
2013-02-03 17:00:00,69.9,58.0,30.06,WNW,302,10.0,11.0,66,0.00,,FEW,0.00,220.00,VWS V14.01,2013-02-03 22:00:00,
2013-02-03 17:05:00,69.8,57.5,30.06,NNW,342,9.0,10.0,65,0.00,,FEW,0.00,202.00,VWS V14.01,2013-02-03 22:05:00,
2013-02-03 17:10:00,69.7,57.8,30.06,North,5,6.0,10.0,66,0.00,,FEW,0.00,179.00,VWS V14.01,2013-02-03 22:10:00,
2013-02-03 17:11:00,69.6,57.8,30.06,NNW,346,7.0,10.0,66,0.00,,FEW,0.00,176.00,VWS V14.01,2013-02-03 22:11:00,
2013-02-03 17:15:00,69.5,57.2,30.06,NNW,329,9.0,11.0,65,0.00,,FEW,0.00,162.00,VWS V14.01,2013-02-03 22:15:00,
2013-02-03 17:16:00,69.4,57.1,30.06,NNW,342,9.0,11.0,65,0.00,,FEW,0.00,160.00,VWS V14.01,2013-02-03 22:16:00,
2013-02-03 17:20:00,69.3,57.0,30.06,North,5,6.0,11.0,65,0.00,,FEW,0.00,146.00,VWS V14.01,2013-02-03 22:20:00,
2013-02-03 17:21:00,69.2,57.0,30.06,North,355,5.0,11.0,65,0.00,,FEW,0.00,142.00,VWS V14.01,2013-02-03 22:21:00,
2013-02-03 17:25:00,69.2,57.4,30.06,NNW,344,5.0,9.0,66,0.00,,FEW,0.00,125.00,VWS V14.01,2013-02-03 22:25:00,
2013-02-03 17:26:00,69.2,57.4,30.06,NNW,334,4.0,9.0,66,0.00,,FEW,0.00,125.00,VWS V14.01,2013-02-03 22:26:00,
2013-02-03 17:30:00,69.1,57.3,30.06,NW,319,7.0,9.0,66,0.00,,FEW,0.00,105.00,VWS V14.01,2013-02-03 22:30:00,
2013-02-03 17:31:00,69.1,57.3,30.06,North,355,6.0,9.0,66,0.00,,FEW,0.00,102.00,VWS V14.01,2013-02-03 22:31:00,
2013-02-03 17:35:00,69.0,57.2,30.06,North,360,5.0,10.0,66,0.00,,FEW,0.00,65.00,VWS V14.01,2013-02-03 22:35:00,
2013-02-03 17:36:00,69.0,57.2,30.06,NNW,340,5.0,10.0,66,0.00,,FEW,0.00,77.00,VWS V14.01,2013-02-03 22:36:00,
2013-02-03 17:40:00,68.8,57.0,30.06,NNE,28,6.0,10.0,66,0.00,,FEW,0.00,69.00,VWS V14.01,2013-02-03 22:40:00,
2013-02-03 17:41:00,68.8,57.0,30.06,NNW,343,7.0,10.0,66,0.00,,FEW,0.00,69.00,VWS V14.01,2013-02-03 22:41:00,
2013-02-03 17:45:00,68.6,57.2,30.06,North,350,9.0,10.0,67,0.00,,FEW,0.00,51.00,VWS V14.01,2013-02-03 22:45:00,
2013-02-03 17:46:00,68.6,57.2,30.06,NNW,342,6.0,10.0,67,0.00,,FEW,0.00,51.00,VWS V14.01,2013-02-03 22:46:00,
2013-02-03 17:50:00,68.5,57.5,30.06,North,355,7.0,10.0,68,0.00,,FEW,0.00,37.00,VWS V14.01,2013-02-03 22:50:00,
2013-02-03 17:51:00,68.5,57.5,30.06,NW,321,5.0,5.0,68,0.00,,FEW,0.00,30.00,VWS V14.01,2013-02-03 22:51:00,
2013-02-03 17:56:00,68.4,57.4,30.06,North,5,5.0,7.0,68,0.00,,FEW,0.00,18.00,VWS V14.01,2013-02-03 22:56:00,
2013-02-03 18:01:00,68.2,57.2,30.07,North,355,6.0,7.0,68,0.00,,FEW,0.00,14.00,VWS V14.01,2013-02-03 23:01:00,
2013-02-03 18:02:00,68.1,57.2,30.07,North,355,5.0,7.0,68,0.00,,FEW,0.00,12.00,VWS V14.01,2013-02-03 23:02:00,
2013-02-03 18:06:00,68.1,57.6,30.07,NNW,346,8.0,8.0,69,0.00,,FEW,0.00,11.00,VWS V14.01,2013-02-03 23:06:00,
2013-02-03 18:07:00,68.0,57.5,30.07,North,355,3.0,8.0,69,0.00,,FEW,0.00,9.00,VWS V14.01,2013-02-03 23:07:00,
2013-02-03 18:11:00,67.9,57.4,30.07,North,360,5.0,9.0,69,0.00,,FEW,0.00,5.00,VWS V14.01,2013-02-03 23:11:00,
2013-02-03 18:12:00,67.9,57.4,30.07,NW,306,9.0,9.0,69,0.00,,FEW,0.00,5.00,VWS V14.01,2013-02-03 23:12:00,
2013-02-03 18:16:00,67.7,57.6,30.07,North,5,5.0,9.0,70,0.00,,FEW,0.00,0.00,VWS V14.01,2013-02-03 23:16:00,
2013-02-03 18:17:00,67.7,57.6,30.07,North,355,6.0,9.0,70,0.00,,FEW,0.00,0.00,VWS V14.01,2013-02-03 23:17:00,
2013-02-03 18:21:00,67.7,57.6,30.07,NNW,342,5.0,10.0,70,0.00,,FEW,0.00,0.00,VWS V14.01,2013-02-03 23:21:00,
2013-02-03 18:22:00,67.6,57.5,30.07,North,355,5.0,7.0,70,0.00,,FEW,0.00,0.00,VWS V14.01,2013-02-03 23:22:00,
2013-02-03 18:26:00,67.6,57.9,30.07,North,351,7.0,8.0,71,0.00,,FEW,0.00,0.00,VWS V14.01,2013-02-03 23:26:00,
2013-02-03 18:27:00,67.6,57.9,30.07,NNW,346,3.0,8.0,71,0.00,,FEW,0.00,0.00,VWS V14.01,2013-02-03 23:27:00,
2013-02-03 18:31:00,67.6,58.3,30.07,NNW,335,5.0,6.0,72,0.00,,FEW,0.00,0.00,VWS V14.01,2013-02-03 23:31:00,
2013-02-03 18:32:00,67.6,57.9,30.07,NNW,340,6.0,7.0,71,0.00,,FEW,0.00,0.00,VWS V14.01,2013-02-03 23:32:00,
2013-02-03 18:36:00,67.5,57.8,30.07,NW,314,7.0,8.0,71,0.00,,FEW,0.00,0.00,VWS V14.01,2013-02-03 23:36:00,
2013-02-03 18:37:00,67.5,58.2,30.07,NNW,339,7.0,8.0,72,0.00,,FEW,0.00,0.00,VWS V14.01,2013-02-03 23:37:00,
2013-02-03 18:38:00,67.5,57.8,30.07,North,355,5.0,8.0,71,0.00,,FEW,0.00,0.00,VWS V14.01,2013-02-03 23:38:00,
2013-02-03 18:41:00,67.5,58.2,30.07,North,350,4.0,7.0,72,0.00,,FEW,0.00,0.00,VWS V14.01,2013-02-03 23:41:00,
2013-02-03 18:42:00,67.5,58.2,30.07,NNW,336,9.0,9.0,72,0.00,,FEW,0.00,0.00,VWS V14.01,2013-02-03 23:42:00,
2013-02-03 18:43:00,67.5,57.8,30.07,North,5,6.0,9.0,71,0.00,,FEW,0.00,0.00,VWS V14.01,2013-02-03 23:43:00,
2013-02-03 18:46:00,67.5,58.2,30.07,NW,308,4.0,9.0,72,0.00,,FEW,0.00,0.00,VWS V14.01,2013-02-03 23:46:00,
2013-02-03 18:47:00,67.5,58.2,30.07,NW,319,4.0,9.0,72,0.00,,FEW,0.00,0.00,VWS V14.01,2013-02-03 23:47:00,
2013-02-03 18:48:00,67.5,58.2,30.07,North,9,3.0,9.0,72,0.00,,FEW,0.00,0.00,VWS V14.01,2013-02-03 23:48:00,
2013-02-03 18:51:00,67.6,58.7,30.07,North,360,7.0,7.0,73,0.00,,FEW,0.00,0.00,VWS V14.01,2013-02-03 23:51:00,
2013-02-03 18:52:00,67.5,58.5,30.07,NW,305,5.0,7.0,73,0.00,,FEW,0.00,0.00,VWS V14.01,2013-02-03 23:52:00,
2013-02-03 18:53:00,67.5,58.2,30.07,NNW,338,4.0,8.0,72,0.00,,FEW,0.00,0.00,VWS V14.01,2013-02-03 23:53:00,
2013-02-03 18:56:00,67.5,58.2,30.07,NNW,341,6.0,8.0,72,0.00,,FEW,0.00,0.00,VWS V14.01,2013-02-03 23:56:00,
2013-02-03 18:57:00,67.5,58.2,30.07,NNW,327,7.0,8.0,72,0.00,,FEW,0.00,0.00,VWS V14.01,2013-02-03 23:57:00,
2013-02-03 18:58:00,67.5,58.2,30.07,NNW,344,6.0,8.0,72,0.00,,FEW,0.00,0.00,VWS V14.01,2013-02-03 23:58:00,
2013-02-03 19:02:00,67.5,58.2,30.07,NNW,345,8.0,8.0,72,0.00,,FEW,0.00,0.00,VWS V14.01,2013-02-04 00:02:00,
2013-02-03 19:03:00,67.4,58.1,30.07,North,355,10.0,10.0,72,0.00,,FEW,0.00,0.00,VWS V14.01,2013-02-04 00:03:00,
2013-02-03 19:07:00,67.5,58.2,30.07,North,355,6.0,11.0,72,0.00,,FEW,0.00,0.00,VWS V14.01,2013-02-04 00:07:00,
2013-02-03 19:08:00,67.5,58.2,30.07,NNW,336,4.0,11.0,72,0.00,,FEW,0.00,0.00,VWS V14.01,2013-02-04 00:08:00,
2013-02-03 19:12:00,67.5,58.5,30.07,North,360,3.0,8.0,73,0.00,,FEW,0.00,0.00,VWS V14.01,2013-02-04 00:12:00,
2013-02-03 19:13:00,67.5,58.5,30.07,NNW,344,5.0,8.0,73,0.00,,FEW,0.00,0.00,VWS V14.01,2013-02-04 00:13:00,
2013-02-03 19:17:00,67.4,58.1,30.07,North,360,3.0,10.0,72,0.00,,FEW,0.00,0.00,VWS V14.01,2013-02-04 00:17:00,
2013-02-03 19:18:00,67.5,58.2,30.07,NNW,336,6.0,10.0,72,0.00,,FEW,0.00,0.00,VWS V14.01,2013-02-04 00:18:00,
2013-02-03 19:22:00,67.5,58.5,30.07,NNW,347,5.0,7.0,73,0.00,,FEW,0.00,0.00,VWS V14.01,2013-02-04 00:22:00,
2013-02-03 19:23:00,67.5,58.5,30.07,NNW,344,3.0,7.0,73,0.00,,FEW,0.00,0.00,VWS V14.01,2013-02-04 00:23:00,
2013-02-03 19:27:00,67.5,58.5,30.07,North,360,3.0,8.0,73,0.00,,FEW,0.00,0.00,VWS V14.01,2013-02-04 00:27:00,
2013-02-03 19:28:00,67.5,58.5,30.07,NNE,19,3.0,8.0,73,0.00,,FEW,0.00,0.00,VWS V14.01,2013-02-04 00:28:00,
2013-02-03 19:32:00,67.5,58.5,30.08,North,360,6.0,8.0,73,0.00,,FEW,0.00,0.00,VWS V14.01,2013-02-04 00:32:00,
2013-02-03 19:33:00,67.5,58.5,30.08,NNE,14,11.0,11.0,73,0.00,,FEW,0.00,0.00,VWS V14.01,2013-02-04 00:33:00,
2013-02-03 19:34:00,67.5,58.5,30.08,North,360,6.0,11.0,73,0.00,,FEW,0.00,0.00,VWS V14.01,2013-02-04 00:34:00,
2013-02-03 19:37:00,67.5,58.5,30.08,NNW,339,6.0,11.0,73,0.00,,FEW,0.00,0.00,VWS V14.01,2013-02-04 00:37:00,
2013-02-03 19:38:00,67.5,58.5,30.08,North,11,4.0,11.0,73,0.00,,FEW,0.00,0.00,VWS V14.01,2013-02-04 00:38:00,
2013-02-03 19:39:00,67.5,58.5,30.08,NNE,22,1.0,11.0,73,0.00,,FEW,0.00,0.00,VWS V14.01,2013-02-04 00:39:00,
2013-02-03 19:42:00,67.5,58.5,30.08,NNE,20,7.0,7.0,73,0.00,,FEW,0.00,0.00,VWS V14.01,2013-02-04 00:42:00,
2013-02-03 19:43:00,67.5,58.2,30.08,NNE,18,6.0,7.0,72,0.00,,FEW,0.00,0.00,VWS V14.01,2013-02-04 00:43:00,
2013-02-03 19:44:00,67.5,58.2,30.08,NNW,340,4.0,7.0,72,0.00,,FEW,0.00,0.00,VWS V14.01,2013-02-04 00:44:00,
2013-02-03 19:47:00,67.5,58.2,30.08,North,5,6.0,8.0,72,0.00,,FEW,0.00,0.00,VWS V14.01,2013-02-04 00:47:00,
2013-02-03 19:48:00,67.5,58.2,30.08,North,10,5.0,8.0,72,0.00,,FEW,0.00,0.00,VWS V14.01,2013-02-04 00:48:00,
2013-02-03 19:49:00,67.5,58.2,30.08,NNE,33,3.0,8.0,72,0.00,,FEW,0.00,0.00,VWS V14.01,2013-02-04 00:49:00,
2013-02-03 19:52:00,67.5,58.2,30.08,NNE,17,3.0,8.0,72,0.00,,FEW,0.00,0.00,VWS V14.01,2013-02-04 00:52:00,
2013-02-03 19:53:00,67.5,58.2,30.08,NE,49,6.0,8.0,72,0.00,,FEW,0.00,0.00,VWS V14.01,2013-02-04 00:53:00,
2013-02-03 19:54:00,67.5,58.2,30.08,NNE,19,5.0,9.0,72,0.00,,FEW,0.00,0.00,VWS V14.01,2013-02-04 00:54:00,
2013-02-03 19:57:00,67.5,57.8,30.08,North,5,4.0,9.0,71,0.00,,FEW,0.00,0.00,VWS V14.01,2013-02-04 00:57:00,
2013-02-03 19:58:00,67.5,57.8,30.08,North,351,5.0,9.0,71,0.00,,FEW,0.00,0.00,VWS V14.01,2013-02-04 00:58:00,
2013-02-03 19:59:00,67.5,57.8,30.08,NNE,16,4.0,9.0,71,0.00,,FEW,0.00,0.00,VWS V14.01,2013-02-04 00:59:00,
2013-02-03 20:02:00,67.4,57.3,30.08,NNE,14,2.0,7.0,70,0.00,,FEW,0.00,0.00,VWS V14.01,2013-02-04 01:02:00,
2013-02-03 20:03:00,67.4,56.9,30.08,North,360,5.0,7.0,69,0.00,,FEW,0.00,0.00,VWS V14.01,2013-02-04 01:03:00,
2013-02-03 20:04:00,67.4,56.9,30.08,North,351,4.0,7.0,69,0.00,,FEW,0.00,0.00,VWS V14.01,2013-02-04 01:04:00,
2013-02-03 20:08:00,67.4,56.9,30.08,NNE,24,2.0,7.0,69,0.00,,FEW,0.00,0.00,VWS V14.01,2013-02-04 01:08:00,
2013-02-03 20:09:00,67.4,56.9,30.08,NNE,12,4.0,7.0,69,0.00,,FEW,0.00,0.00,VWS V14.01,2013-02-04 01:09:00,
2013-02-03 20:13:00,67.4,56.1,30.08,NNE,22,5.0,8.0,67,0.00,,FEW,0.00,0.00,VWS V14.01,2013-02-04 01:13:00,
2013-02-03 20:14:00,67.4,56.1,30.08,NNE,15,6.0,9.0,67,0.00,,FEW,0.00,0.00,VWS V14.01,2013-02-04 01:14:00,
2013-02-03 20:18:00,67.5,56.2,30.08,NNE,28,4.0,10.0,67,0.00,,FEW,0.00,0.00,VWS V14.01,2013-02-04 01:18:00,
2013-02-03 20:19:00,67.5,56.2,30.08,NNE,27,4.0,10.0,67,0.00,,FEW,0.00,0.00,VWS V14.01,2013-02-04 01:19:00,
2013-02-03 20:20:00,67.6,55.8,30.08,North,5,3.0,10.0,66,0.00,,FEW,0.00,0.00,VWS V14.01,2013-02-04 01:20:00,
2013-02-03 20:23:00,67.6,55.8,30.08,NE,40,2.0,7.0,66,0.00,,FEW,0.00,0.00,VWS V14.01,2013-02-04 01:23:00,
2013-02-03 20:24:00,67.6,55.8,30.08,NE,40,5.0,7.0,66,0.00,,FEW,0.00,0.00,VWS V14.01,2013-02-04 01:24:00,
2013-02-03 20:25:00,67.6,55.0,30.08,NNE,29,3.0,7.0,64,0.00,,FEW,0.00,0.00,VWS V14.01,2013-02-04 01:25:00,
2013-02-03 20:28:00,67.6,54.6,30.08,NE,36,4.0,7.0,63,0.00,,FEW,0.00,0.00,VWS V14.01,2013-02-04 01:28:00,
2013-02-03 20:29:00,67.6,54.6,30.08,NNE,13,6.0,8.0,63,0.00,,FEW,0.00,0.00,VWS V14.01,2013-02-04 01:29:00,
2013-02-03 20:30:00,67.6,54.1,30.08,North,355,3.0,8.0,62,0.00,,FEW,0.00,0.00,VWS V14.01,2013-02-04 01:30:00,
2013-02-03 20:33:00,67.7,54.2,30.09,NNE,17,2.0,8.0,62,0.00,,FEW,0.00,0.00,VWS V14.01,2013-02-04 01:33:00,
2013-02-03 20:34:00,67.7,54.7,30.09,NNE,16,2.0,8.0,63,0.00,,FEW,0.00,0.00,VWS V14.01,2013-02-04 01:34:00,
2013-02-03 20:35:00,67.7,54.7,30.09,NE,40,5.0,8.0,63,0.00,,FEW,0.00,0.00,VWS V14.01,2013-02-04 01:35:00,
2013-02-03 20:38:00,67.7,53.3,30.09,NNE,12,5.0,8.0,60,0.00,,FEW,0.00,0.00,VWS V14.01,2013-02-04 01:38:00,
2013-02-03 20:39:00,67.7,53.3,30.09,NNE,30,3.0,8.0,60,0.00,,FEW,0.00,0.00,VWS V14.01,2013-02-04 01:39:00,
2013-02-03 20:40:00,67.7,53.3,30.09,ENE,58,3.0,8.0,60,0.00,,FEW,0.00,0.00,VWS V14.01,2013-02-04 01:40:00,
2013-02-03 20:43:00,67.7,53.3,30.09,NE,35,4.0,7.0,60,0.00,,FEW,0.00,0.00,VWS V14.01,2013-02-04 01:43:00,
2013-02-03 20:44:00,67.7,53.3,30.09,NE,42,6.0,8.0,60,0.00,,FEW,0.00,0.00,VWS V14.01,2013-02-04 01:44:00,
2013-02-03 20:45:00,67.7,52.9,30.09,NNE,15,2.0,8.0,59,0.00,,FEW,0.00,0.00,VWS V14.01,2013-02-04 01:45:00,
2013-02-03 20:48:00,67.7,52.9,30.09,NE,51,3.0,8.0,59,0.00,,FEW,0.00,0.00,VWS V14.01,2013-02-04 01:48:00,
2013-02-03 20:49:00,67.7,52.9,30.09,NNE,26,7.0,8.0,59,0.00,,FEW,0.00,0.00,VWS V14.01,2013-02-04 01:49:00,
2013-02-03 20:50:00,67.7,53.3,30.09,NE,35,3.0,8.0,60,0.00,,FEW,0.00,0.00,VWS V14.01,2013-02-04 01:50:00,
2013-02-03 20:54:00,67.7,52.9,30.09,NE,48,4.0,7.0,59,0.00,,FEW,0.00,0.00,VWS V14.01,2013-02-04 01:54:00,
2013-02-03 20:55:00,67.7,52.9,30.09,NE,46,2.0,7.0,59,0.00,,FEW,0.00,0.00,VWS V14.01,2013-02-04 01:55:00,
2013-02-03 20:59:00,67.7,53.8,30.09,NNE,21,3.0,7.0,61,0.00,,FEW,0.00,0.00,VWS V14.01,2013-02-04 01:59:00,
2013-02-03 21:00:00,67.7,53.8,30.09,NNE,30,3.0,7.0,61,0.00,,FEW,0.00,0.00,VWS V14.01,2013-02-04 02:00:00,
2013-02-03 21:04:00,67.7,53.8,30.09,NNE,33,5.0,8.0,61,0.00,,FEW,0.00,0.00,VWS V14.01,2013-02-04 02:04:00,
2013-02-03 21:05:00,67.8,53.9,30.09,NNE,23,5.0,8.0,61,0.00,,FEW,0.00,0.00,VWS V14.01,2013-02-04 02:05:00,
2013-02-03 21:06:00,67.8,54.3,30.09,NNE,17,3.0,8.0,62,0.00,,FEW,0.00,0.00,VWS V14.01,2013-02-04 02:06:00,
2013-02-03 21:09:00,67.8,53.9,30.09,North,5,5.0,9.0,61,0.00,,FEW,0.00,0.00,VWS V14.01,2013-02-04 02:09:00,
2013-02-03 21:10:00,67.8,54.3,30.09,NNE,24,4.0,9.0,62,0.00,,FEW,0.00,0.00,VWS V14.01,2013-02-04 02:10:00,
2013-02-03 21:11:00,67.8,54.3,30.09,NE,48,6.0,9.0,62,0.00,,FEW,0.00,0.00,VWS V14.01,2013-02-04 02:11:00,
2013-02-03 21:14:00,67.8,54.3,30.09,NE,43,1.0,7.0,62,0.00,,FEW,0.00,0.00,VWS V14.01,2013-02-04 02:14:00,
2013-02-03 21:15:00,67.8,54.3,30.09,NE,40,2.0,7.0,62,0.00,,FEW,0.00,0.00,VWS V14.01,2013-02-04 02:15:00,
2013-02-03 21:16:00,67.7,54.2,30.09,NNE,23,3.0,7.0,62,0.00,,FEW,0.00,0.00,VWS V14.01,2013-02-04 02:16:00,
2013-02-03 21:20:00,67.6,54.6,30.09,NE,42,4.0,7.0,63,0.00,,FEW,0.00,0.00,VWS V14.01,2013-02-04 02:20:00,
2013-02-03 21:21:00,67.6,54.6,30.09,NE,44,4.0,7.0,63,0.00,,FEW,0.00,0.00,VWS V14.01,2013-02-04 02:21:00,
2013-02-03 21:25:00,67.6,54.1,30.09,NNE,22,5.0,9.0,62,0.00,,FEW,0.00,0.00,VWS V14.01,2013-02-04 02:25:00,
2013-02-03 21:26:00,67.6,54.1,30.09,NNE,32,3.0,9.0,62,0.00,,FEW,0.00,0.00,VWS V14.01,2013-02-04 02:26:00,
2013-02-03 21:30:00,67.5,54.5,30.09,NE,36,2.0,9.0,63,0.00,,FEW,0.00,0.00,VWS V14.01,2013-02-04 02:30:00,
2013-02-03 21:31:00,67.6,54.6,30.09,NE,49,3.0,9.0,63,0.00,,FEW,0.00,0.00,VWS V14.01,2013-02-04 02:31:00,
2013-02-03 21:35:00,67.5,53.6,30.09,NE,42,4.0,9.0,61,0.00,,FEW,0.00,0.00,VWS V14.01,2013-02-04 02:35:00,
2013-02-03 21:36:00,67.5,53.6,30.09,NNW,343,6.0,9.0,61,0.00,,FEW,0.00,0.00,VWS V14.01,2013-02-04 02:36:00,
2013-02-03 21:40:00,67.5,53.6,30.09,NE,36,4.0,11.0,61,0.00,,FEW,0.00,0.00,VWS V14.01,2013-02-04 02:40:00,
2013-02-03 21:41:00,67.5,53.6,30.09,NNE,27,5.0,11.0,61,0.00,,FEW,0.00,0.00,VWS V14.01,2013-02-04 02:41:00,
2013-02-03 21:45:00,67.5,54.0,30.09,NNE,32,5.0,11.0,62,0.00,,FEW,0.00,0.00,VWS V14.01,2013-02-04 02:45:00,
2013-02-03 21:46:00,67.5,54.0,30.09,NNE,21,4.0,11.0,62,0.00,,FEW,0.00,0.00,VWS V14.01,2013-02-04 02:46:00,
2013-02-03 21:50:00,67.4,52.6,30.09,NE,47,9.0,11.0,59,0.00,,FEW,0.00,0.00,VWS V14.01,2013-02-04 02:50:00,
2013-02-03 21:51:00,67.4,51.7,30.09,NE,38,5.0,11.0,57,0.00,,FEW,0.00,0.00,VWS V14.01,2013-02-04 02:51:00,
2013-02-03 21:55:00,67.3,50.1,30.09,NNE,26,5.0,8.0,54,0.00,,FEW,0.00,0.00,VWS V14.01,2013-02-04 02:55:00,
2013-02-03 21:56:00,67.3,49.6,30.09,NE,46,2.0,8.0,53,0.00,,FEW,0.00,0.00,VWS V14.01,2013-02-04 02:56:00,
2013-02-03 22:00:00,67.4,49.7,30.09,North,9,7.0,11.0,53,0.00,,FEW,0.00,0.00,VWS V14.01,2013-02-04 03:00:00,
2013-02-03 22:01:00,67.4,49.2,30.09,North,11,5.0,11.0,52,0.00,,FEW,0.00,0.00,VWS V14.01,2013-02-04 03:01:00,
2013-02-03 22:05:00,67.4,48.7,30.09,North,5,7.0,11.0,51,0.00,,FEW,0.00,0.00,VWS V14.01,2013-02-04 03:05:00,
2013-02-03 22:06:00,67.4,48.7,30.09,NNE,33,4.0,11.0,51,0.00,,FEW,0.00,0.00,VWS V14.01,2013-02-04 03:06:00,
2013-02-03 22:10:00,67.4,48.1,30.09,North,360,6.0,13.0,50,0.00,,FEW,0.00,0.00,VWS V14.01,2013-02-04 03:10:00,
2013-02-03 22:11:00,67.4,48.1,30.09,NE,42,6.0,6.0,50,0.00,,FEW,0.00,0.00,VWS V14.01,2013-02-04 03:11:00,
2013-02-03 22:15:00,67.4,49.2,30.09,NNW,337,9.0,9.0,52,0.00,,FEW,0.00,0.00,VWS V14.01,2013-02-04 03:15:00,
2013-02-03 22:16:00,67.4,48.1,30.09,NNE,28,5.0,11.0,50,0.00,,FEW,0.00,0.00,VWS V14.01,2013-02-04 03:16:00,
2013-02-03 22:20:00,67.4,47.6,30.09,North,11,5.0,11.0,49,0.00,,FEW,0.00,0.00,VWS V14.01,2013-02-04 03:20:00,
2013-02-03 22:21:00,67.4,47.6,30.09,NE,34,11.0,11.0,49,0.00,,FEW,0.00,0.00,VWS V14.01,2013-02-04 03:21:00,
2013-02-03 22:25:00,67.4,49.2,30.09,NE,44,3.0,10.0,52,0.00,,FEW,0.00,0.00,VWS V14.01,2013-02-04 03:25:00,
2013-02-03 22:26:00,67.4,49.2,30.09,NE,44,3.0,10.0,52,0.00,,FEW,0.00,0.00,VWS V14.01,2013-02-04 03:26:00,
2013-02-03 22:30:00,67.3,47.0,30.09,North,5,4.0,10.0,48,0.00,,FEW,0.00,0.00,VWS V14.01,2013-02-04 03:30:00,
2013-02-03 22:31:00,67.3,47.0,30.09,North,5,4.0,10.0,48,0.00,,FEW,0.00,0.00,VWS V14.01,2013-02-04 03:31:00,
2013-02-03 22:36:00,67.3,46.4,30.09,NNE,22,9.0,11.0,47,0.00,,FEW,0.00,0.00,VWS V14.01,2013-02-04 03:36:00,
2013-02-03 22:41:00,67.4,46.5,30.09,NE,36,9.0,12.0,47,0.00,,FEW,0.00,0.00,VWS V14.01,2013-02-04 03:41:00,
2013-02-03 22:46:00,67.4,47.0,30.10,NNE,22,4.0,10.0,48,0.00,,FEW,0.00,0.00,VWS V14.01,2013-02-04 03:46:00,
2013-02-03 22:51:00,67.4,49.2,30.10,NNE,21,3.0,10.0,52,0.00,,FEW,0.00,0.00,VWS V14.01,2013-02-04 03:51:00,
2013-02-03 22:56:00,67.2,48.5,30.10,North,5,3.0,8.0,51,0.00,,FEW,0.00,0.00,VWS V14.01,2013-02-04 03:56:00,
2013-02-03 22:57:00,67.2,48.5,30.10,NE,44,3.0,8.0,51,0.00,,FEW,0.00,0.00,VWS V14.01,2013-02-04 03:57:00,
2013-02-03 23:01:00,67.1,48.4,30.10,NE,41,6.0,10.0,51,0.00,,FEW,0.00,0.00,VWS V14.01,2013-02-04 04:01:00,
2013-02-03 23:02:00,67.1,48.4,30.10,NE,42,3.0,8.0,51,0.00,,FEW,0.00,0.00,VWS V14.01,2013-02-04 04:02:00,
2013-02-03 23:06:00,67.1,46.8,30.10,NE,36,6.0,12.0,48,0.00,,FEW,0.00,0.00,VWS V14.01,2013-02-04 04:06:00,
2013-02-03 23:07:00,67.1,47.3,30.10,NNE,22,6.0,12.0,49,0.00,,FEW,0.00,0.00,VWS V14.01,2013-02-04 04:07:00,
2013-02-03 23:11:00,67.1,47.3,30.10,NNE,15,6.0,12.0,49,0.00,,FEW,0.00,0.00,VWS V14.01,2013-02-04 04:11:00,
2013-02-03 23:12:00,67.1,47.3,30.10,NNE,14,5.0,10.0,49,0.00,,FEW,0.00,0.00,VWS V14.01,2013-02-04 04:12:00,
2013-02-03 23:16:00,67.2,48.5,30.10,NE,34,4.0,10.0,51,0.00,,FEW,0.00,0.00,VWS V14.01,2013-02-04 04:16:00,
2013-02-03 23:17:00,67.1,48.4,30.10,NNE,33,5.0,10.0,51,0.00,,FEW,0.00,0.00,VWS V14.01,2013-02-04 04:17:00,
2013-02-03 23:21:00,67.0,48.3,30.10,NNE,28,4.0,10.0,51,0.00,,FEW,0.00,0.00,VWS V14.01,2013-02-04 04:21:00,
2013-02-03 23:22:00,67.0,48.3,30.10,NNE,17,4.0,6.0,51,0.00,,FEW,0.00,0.00,VWS V14.01,2013-02-04 04:22:00,
2013-02-03 23:26:00,67.0,47.2,30.10,NE,34,5.0,10.0,49,0.00,,FEW,0.00,0.00,VWS V14.01,2013-02-04 04:26:00,
2013-02-03 23:27:00,66.9,47.1,30.10,NNE,19,5.0,10.0,49,0.00,,FEW,0.00,0.00,VWS V14.01,2013-02-04 04:27:00,
2013-02-03 23:31:00,67.0,46.7,30.09,NE,51,3.0,13.0,48,0.00,,FEW,0.00,0.00,VWS V14.01,2013-02-04 04:31:00,
2013-02-03 23:32:00,67.0,46.7,30.09,ENE,61,5.0,10.0,48,0.00,,FEW,0.00,0.00,VWS V14.01,2013-02-04 04:32:00,
2013-02-03 23:36:00,67.0,45.0,30.09,NE,40,2.0,12.0,45,0.00,,FEW,0.00,0.00,VWS V14.01,2013-02-04 04:36:00,
2013-02-03 23:37:00,67.0,45.6,30.09,NE,39,3.0,12.0,46,0.00,,FEW,0.00,0.00,VWS V14.01,2013-02-04 04:37:00,
2013-02-03 23:41:00,67.0,46.1,30.09,NE,42,4.0,5.0,47,0.00,,FEW,0.00,0.00,VWS V14.01,2013-02-04 04:41:00,
2013-02-03 23:42:00,67.0,46.1,30.09,NNE,28,5.0,8.0,47,0.00,,FEW,0.00,0.00,VWS V14.01,2013-02-04 04:42:00,
2013-02-03 23:46:00,67.0,46.7,30.09,NNE,16,6.0,9.0,48,0.00,,FEW,0.00,0.00,VWS V14.01,2013-02-04 04:46:00,
2013-02-03 23:47:00,67.0,46.7,30.09,NE,42,3.0,9.0,48,0.00,,FEW,0.00,0.00,VWS V14.01,2013-02-04 04:47:00,
2013-02-03 23:48:00,67.0,46.1,30.09,NE,53,9.0,9.0,47,0.00,,FEW,0.00,0.00,VWS V14.01,2013-02-04 04:48:00,
2013-02-03 23:51:00,67.0,47.2,30.09,ENE,75,8.0,8.0,49,0.00,,FEW,0.00,0.00,VWS V14.01,2013-02-04 04:51:00,
2013-02-03 23:52:00,67.0,47.2,30.09,NE,40,3.0,8.0,49,0.00,,FEW,0.00,0.00,VWS V14.01,2013-02-04 04:52:00,
2013-02-03 23:53:00,67.0,47.2,30.09,North,10,5.0,8.0,49,0.00,,FEW,0.00,0.00,VWS V14.01,2013-02-04 04:53:00,
2013-02-03 23:56:00,67.0,46.7,30.09,ENE,57,3.0,11.0,48,0.00,,FEW,0.00,0.00,VWS V14.01,2013-02-04 04:56:00,
2013-02-03 23:57:00,67.0,47.2,30.09,NE,55,3.0,11.0,49,0.00,,FEW,0.00,0.00,VWS V14.01,2013-02-04 04:57:00,
2013-02-03 23:58:00,67.0,47.2,30.09,NNE,30,4.0,11.0,49,0.00,,FEW,0.00,0.00,VWS V14.01,2013-02-04 04:58:00,